GFSGBSN_prec_cloud_105.txt.gz
Cloud_Cover
47 10 52 83 66 34 82 84 92 99 89 94 91 72 6 71 7 19 23 5 11 5 4 5 0 0 19 9 49 32 5 5 77 64 85 95 5 27 100 100 98 93 100 100 100 100 100
100 100 100 100 100 91 10 66 50 87 58 93 46 62 39 7 8 5 5 5 5 5 3 0 0 2 44 29 54 5 5 78 84 100 100 85 50 39 14 11 96 100 100 100 100 100 100
65 89 100 100 86 55 40 42 12 64 100 56 21 5 5 5 14 22 23 7 5 2 1 0 0 40 96 19 0 1 18 13 100 100 100 100 100 43 25 5 6 25 88 100 100 100 100
100 100 71 100 100 100 5 8 10 83 80 5 5 3 5 5 5 5 18 6 5 3 0 0 0 79 39 0 0 1 33 43 41 94 100 100 100 98 6 72 5 5 5 10 100 100 100
100 100 92 100 46 16 5 4 5 11 5 5 5 5 8 5 6 5 0 0 0 0 0 1 89 97 8 9 6 0 5 29 100 100 100 100 100 87 44 5 83 60 33 100 100 100 100
100 100 100 94 86 85 99 100 92 40 5 5 5 5 8 5 0 0 0 0 0 0 18 77 99 72 10 100 100 96 2 3 91 100 100 100 100 99 99 90 11 81 100 100 100 62 5
100 100 100 100 100 100 98 100 8 5 5 16 22 5 5 0 0 0 0 0 4 4 7 100 100 54 0 10 100 100 97 5 12 100 100 100 100 87 100 100 100 100 100 100 100 15 4
100 100 100 100 100 100 100 100 98 89 44 23 5 5 1 0 0 0 0 5 100 100 100 4 48 67 10 0 40 100 100 100 13 76 100 100 100 100 100 100 100 100 99 16 68 69 35
100 100 100 100 100 100 100 100 82 88 15 5 4 0 0 0 0 0 3 29 38 50 100 2 1 4 0 0 0 4 100 100 100 93 100 100 100 100 100 100 100 100 100 100 100 100 38
100 100 100 100 100 100 100 100 35 32 7 14 0 0 0 0 0 0 5 50 12 73 100 30 3 4 0 0 0 0 15 100 100 100 100 100 100 100 100 100 100 100 100 100 100 100 20
100 100 100 100 100 99 5 5 5 5 5 1 0 0 0 0 4 6 5 5 11 95 99 100 85 80 5 0 0 0 0 35 99 100 100 100 100 100 100 100 100 100 100 100 100 84 28
100 100 100 100 92 26 8 5 5 4 2 0 0 0 0 3 14 4 5 0 78 100 100 83 100 100 100 1 2 0 0 5 100 100 100 100 100 100 100 100 100 100 100 100 100 100 100
100 100 100 100 100 92 40 5 5 2 1 0 0 0 0 0 4 5 3 3 100 98 82 100 100 100 100 100 70 8 3 81 100 100 79 100 100 100 100 100 100 100 100 100 100 85 72
100 100 100 100 100 98 5 10 5 5 4 0 0 0 0 0 5 0 2 100 93 100 100 65 100 100 100 91 100 100 61 100 99 95 96 56 100 100 100 100 100 100 100 98 100 82 89
100 100 100 100 90 21 5 5 5 5 1 0 0 0 0 0 4 5 4 5 78 98 79 7 100 100 100 100 99 92 97 100 100 80 100 100 100 100 100 100 100 100 100 100 100 100 95
100 100 100 93 98 96 5 5 5 5 0 0 0 0 3 0 5 4 5 12 22 65 5 38 48 100 100 100 100 100 100 100 100 100 100 100 100 100 100 100 100 100 100 100 100 100 100
100 100 100 100 100 31 5 5 5 5 0 0 0 4 3 5 5 5 8 5 5 59 6 3 5 78 100 100 100 100 100 100 100 100 100 100 100 100 100 100 100 100 100 100 100 100 100
100 100 100 100 100 37 5 5 5 4 0 2 5 5 0 0 6 39 20 7 5 5 2 4 18 98 94 100 100 100 100 100 100 100 100 100 100 100 100 100 100 100 100 100 100 100 97
100 100 100 100 73 5 5 65 5 5 0 5 12 5 5 5 16 62 5 78 51 5 16 33 40 75 100 100 100 100 100 100 100 100 100 100 100 100 100 100 100 100 100 91 100 18 28
100 100 100 100 66 31 54 5 5 24 5 5 9 10 4 82 97 85 80 70 33 34 97 61 100 59 100 100 100 100 100 100 100 100 100 100 98 100 100 97 100 100 100 83 84 64 78
100 100 100 100 100 100 32 85 93 80 5 5 40 47 7 11 75 22 12 7 79 82 86 91 58 73 97 78 97 100 100 81 100 100 100 100 95 47 44 100 100 100 100 100 100 100 100
100 100 100 100 100 100 61 6 98 88 14 13 36 66 48 27 5 5 7 22 95 99 66 51 25 5 90 99 100 97 84 13 92 100 100 100 100 100 57 5 43 97 76 99 97 59 68
100 100 100 100 100 100 98 27 92 100 100 85 28 12 44 36 5 5 5 5 12 21 61 60 92 96 61 15 5 5 37 91 100 99 100 100 89 80 100 83 39 10 10 44 19 4 4
100 100 100 100 100 100 90 33 100 100 100 100 93 88 79 17 28 43 16 80 92 100 100 80 98 71 5 5 3 5 40 100 100 100 100 100 93 29 9 26 5 29 12 4 16 29 100
100 100 100 100 100 100 100 100 100 100 100 100 100 99 90 60 33 47 29 58 100 96 100 100 100 51 52 52 100 73 100 100 94 92 100 100 71 33 70 10 9 6 100 69 100 89 99
100 100 100 100 100 100 100 100 100 99 100 100 100 100 100 100 57 91 60 100 100 100 100 99 85 34 100 43 99 92 100 100 100 90 100 100 100 76 76 100 100 100 100 98 88 97 100
100 100 100 100 100 100 100 100 100 19 86 100 100 100 100 100 70 67 97 100 85 95 100 100 100 86 92 88 27 97 100 100 100 100 100 100 100 100 100 100 100 100 100 100 98 99 100
100 100 100 100 100 100 100 100 86 59 96 100 100 100 100 100 93 90 58 100 100 100 86 100 100 90 85 100 84 99 100 99 98 100 100 81 100 100 100 100 100 100 100 96 100 100 100
7 64 100 100 100 33 30 100 19 98 100 100 100 100 100 100 96 66 28 68 100 94 99 100 99 100 100 99 97 100 100 100 97 100 95 95 100 100 100 100 100 100 100 100 100 100 100

GFSGBSN_prec_cloud_108.txt.gz
Cloud_Cover
80 100 94 100 100 100 100 100 100 100 100 100 100 100 100 81 80 19 8 5 9 50 6 5 5 5 5 4 72 38 1 5 3 5 4 4 3 5 23 96 100 98 100 100 100 100 100
100 100 100 100 100 100 100 100 100 100 100 100 100 87 30 26 53 73 70 22 6 5 5 5 0 13 5 5 85 3 36 5 3 2 55 5 5 11 13 15 73 43 57 100 100 100 100
100 100 100 100 100 100 100 100 100 100 100 100 100 100 100 99 8 5 5 9 15 5 5 2 0 4 3 9 26 5 2 0 2 5 5 100 93 43 3 5 93 100 98 97 100 100 100
100 100 100 100 100 100 100 100 100 100 99 15 10 6 4 2 0 2 3 0 5 1 0 0 1 15 18 2 7 1 2 3 0 0 2 6 100 37 11 5 5 98 40 100 75 66 100
100 100 100 100 100 100 100 100 100 92 8 77 91 4 4 1 1 0 0 0 0 0 0 0 17 75 2 0 0 0 0 0 0 0 0 5 10 91 59 42 47 5 5 31 99 45 100
100 100 100 100 100 100 100 100 100 89 5 5 34 25 5 5 4 5 0 0 0 0 14 21 76 98 4 0 0 0 0 0 0 2 1 5 5 6 93 33 12 36 41 26 44 100 100
100 100 100 100 100 100 43 15 5 36 58 97 5 56 5 4 4 4 2 1 1 1 5 2 0 3 0 0 11 1 0 0 67 100 92 8 51 2 8 100 100 100 91 31 97 100 100
100 100 100 100 100 100 100 100 100 96 84 10 5 4 5 1 0 0 11 5 60 69 89 0 0 4 3 0 5 1 88 19 14 100 100 100 40 38 100 100 100 100 100 16 100 56 100
100 100 100 100 100 100 100 100 98 97 91 49 5 5 6 5 0 12 8 5 18 98 31 0 1 1 7 5 1 68 100 78 1 86 100 100 100 100 100 100 100 100 100 100 100 100 93
100 100 100 100 100 100 100 100 97 91 99 7 7 8 5 4 13 5 5 2 17 91 51 3 97 100 100 61 35 0 15 100 82 1 100 100 100 100 89 30 100 98 100 100 100 100 100
100 100 100 100 100 100 100 100 100 100 100 69 5 5 5 0 4 4 2 5 24 97 9 19 100 100 100 95 49 0 18 93 74 9 5 96 100 100 100 100 100 99 100 100 100 82 100
100 100 100 100 100 100 100 100 100 100 81 5 5 5 4 3 4 1 1 7 87 70 100 81 100 100 100 62 74 29 0 0 4 100 34 53 100 100 100 100 100 100 100 100 100 100 100
100 100 100 100 100 100 100 100 100 82 18 5 5 5 0 0 4 0 0 20 70 48 39 93 100 100 100 99 76 100 4 0 0 4 89 89 100 100 100 100 100 100 100 100 100 100 98
100 100 100 100 100 100 100 100 15 67 16 5 5 0 0 0 0 2 2 40 5 62 100 62 100 100 100 100 100 93 85 22 4 32 100 100 88 100 100 100 100 100 100 100 100 100 100
100 100 100 100 100 100 100 100 96 26 5 5 5 2 3 0 0 1 5 4 9 98 73 100 100 100 100 100 100 100 84 100 91 100 100 100 100 93 100 100 100 100 100 100 100 100 100
100 100 100 100 100 100 82 100 44 12 5 5 4 5 4 0 2 4 3 1 4 40 5 78 100 100 100 100 100 100 98 100 100 100 100 100 100 100 100 100 100 100 100 100 100 100 100
100 100 100 100 100 51 94 18 7 5 5 5 5 5 2 0 11 11 2 0 0 0 29 100 100 100 100 100 100 100 100 100 97 100 100 100 100 100 100 100 100 100 100 100 100 100 100
100 100 100 100 100 100 76 9 5 5 5 5 5 5 0 0 72 63 62 5 6 5 53 100 100 100 100 100 100 100 100 100 100 100 100 100 100 100 100 100 100 100 100 100 100 100 100
100 100 100 100 96 56 18 87 57 5 5 5 5 5 3 24 49 35 82 91 46 15 74 81 98 98 100 100 99 97 100 100 100 100 100 100 100 100 100 100 100 100 100 100 100 100 100
100 100 100 100 94 22 75 94 67 5 5 5 15 5 5 84 23 68 68 94 89 70 72 92 76 88 84 98 100 95 100 100 100 100 100 100 100 100 100 100 94 100 100 100 100 100 100
100 100 100 100 100 84 70 100 100 99 5 5 15 6 4 17 63 5 9 33 98 69 32 86 96 98 88 100 96 100 92 100 100 100 100 100 100 100 100 79 93 100 100 100 100 100 100
100 100 100 100 98 100 100 100 100 100 42 25 88 33 6 5 5 5 3 60 23 62 5 36 100 68 42 96 91 86 90 82 100 100 100 100 100 100 100 100 100 100 100 100 100 100 100
100 100 100 100 100 100 97 83 97 100 84 96 22 18 44 26 5 10 4 5 58 5 4 9 41 5 5 51 5 5 5 47 45 82 100 98 96 100 100 100 100 81 98 100 100 100 90
100 100 100 100 100 100 72 85 100 100 100 89 90 85 81 87 38 69 4 3 16 38 99 100 100 90 50 5 5 20 45 22 59 99 76 100 96 89 100 100 100 94 97 67 100 90 22
100 100 100 100 100 99 97 100 100 100 100 100 94 100 79 86 92 36 16 5 18 100 100 100 92 37 5 7 22 66 96 88 72 5 72 78 97 100 96 100 61 7 95 45 89 100 96
100 100 100 100 100 100 98 100 100 100 100 100 100 100 100 74 88 5 5 5 55 100 100 90 86 18 24 36 56 99 100 100 100 97 100 85 100 100 100 100 95 81 100 89 67 100 100
100 100 100 100 100 100 100 100 100 100 100 100 100 100 100 98 6 69 93 88 15 95 100 98 86 47 30 100 96 98 99 100 94 100 100 100 100 100 98 100 49 27 100 100 100 100 100
100 100 100 100 100 100 100 100 100 100 100 100 100 100 100 94 68 69 14 39 43 100 94 88 81 84 90 94 100 100 75 90 72 100 100 100 100 100 100 100 94 86 100 100 100 100 100
100 100 100 100 100 100 100 100 100 100 100 100 100 100 100 100 99 72 19 17 45 92 100 100 84 79 91 96 90 84 98 33 62 96 100 100 95 100 100 100 100 100 100 100 100 100 100

GFSGBSN_prec_cloud_111.txt.gz
Cloud_Cover
100 100 85 100 100 95 91 80 98 100 100 100 100 100 100 100 100 100 100 100 100 98 98 100 99 5 3 5 99 31 4 5 18 8 28 39 5 2 8 37 17 6 5 4 96 100 100
100 98 100 100 100 100 100 100 100 100 95 100 100 100 100 100 100 89 97 100 100 100 100 100 100 62 11 32 38 20 4 0 6 3 6 8 4 0 0 83 4 7 5 0 3 93 100
100 100 100 100 100 100 100 100 100 100 100 100 100 100 100 100 100 94 89 58 100 100 82 100 100 97 1 0 0 15 5 3 0 3 5 7 3 0 0 4 45 2 33 20 5 2 97
100 100 100 100 100 100 100 100 100 100 100 100 100 100 100 100 100 100 5 19 5 8 6 0 0 0 5 0 0 0 0 2 2 0 0 0 0 0 0 2 7 6 5 5 82 5 6
100 100 100 100 100 100 100 100 100 100 100 100 100 100 100 100 100 100 100 12 4 1 0 2 5 46 1 0 0 2 0 0 0 0 0 0 0 0 0 4 5 5 3 0 12 39 95
100 100 99 100 100 99 100 100 100 100 100 100 100 99 43 85 39 13 0 0 0 0 4 0 5 3 0 0 0 3 1 62 14 0 0 0 3 4 0 0 1 4 60 69 37 94 100
100 100 100 100 100 100 100 100 98 99 100 93 46 33 0 0 38 5 25 28 5 0 2 0 0 0 0 0 0 0 0 75 100 6 0 0 0 0 0 0 0 34 100 100 100 100 100
100 100 100 100 100 100 100 100 100 92 97 72 7 11 99 100 16 5 4 5 4 37 68 0 0 6 56 77 22 4 0 100 100 94 8 0 0 0 0 0 0 93 100 30 62 100 100
100 100 100 100 100 100 100 100 99 96 98 100 100 100 19 39 5 12 8 5 8 76 24 0 1 1 3 8 40 2 65 100 100 100 100 0 0 1 5 5 5 6 49 23 100 100 99
100 100 100 100 100 100 100 100 100 100 100 100 100 36 72 68 23 1 5 5 13 95 16 51 12 14 72 72 48 10 5 99 100 100 100 26 0 0 48 100 100 100 42 100 100 100 77
100 100 100 100 100 100 100 100 100 100 100 100 100 56 6 5 5 5 3 5 18 63 6 4 2 0 58 76 13 100 1 5 71 100 100 100 100 11 5 100 100 100 100 100 100 100 100
100 100 100 100 100 100 100 100 100 96 74 95 22 5 10 6 49 6 5 5 44 86 91 2 3 4 94 100 35 100 5 2 6 65 100 100 73 89 82 100 100 100 100 100 100 100 100
100 100 100 100 100 100 100 100 100 100 100 100 39 89 4 5 5 5 4 11 40 56 24 13 45 24 98 75 97 100 2 4 100 100 100 100 100 96 100 100 100 100 100 100 100 100 7
100 100 100 100 100 100 100 100 100 100 100 44 100 36 5 5 5 5 5 44 21 15 95 4 4 92 98 100 100 100 22 0 0 4 100 94 100 100 39 100 100 100 100 100 100 100 79
100 100 100 100 100 100 100 100 100 100 82 93 72 44 62 2 4 5 5 17 36 62 6 4 8 100 100 100 100 100 100 89 66 87 94 100 100 97 100 100 100 100 100 100 100 100 100
100 100 100 100 100 100 100 100 100 100 100 38 58 10 5 5 4 3 4 1 0 3 0 5 47 86 100 100 100 100 100 91 90 45 88 94 100 88 100 100 100 100 100 100 100 100 100
100 100 100 100 100 99 100 100 100 22 98 7 92 26 5 0 4 9 10 4 1 5 4 31 59 100 100 100 100 100 100 100 97 100 100 100 92 74 100 92 100 100 100 100 100 100 100
100 100 100 100 100 100 89 100 99 19 63 15 40 56 3 3 69 38 42 5 2 23 5 99 96 100 100 100 100 100 100 100 100 100 100 100 100 100 100 99 100 100 100 100 100 100 100
100 100 100 100 100 100 100 100 100 69 63 44 24 5 4 3 63 5 21 26 30 85 68 87 93 100 98 100 100 100 100 100 100 100 100 80 100 100 100 100 100 100 100 100 100 100 100
100 100 100 90 100 100 100 100 100 44 10 21 21 40 20 20 5 13 42 57 99 79 76 99 98 100 100 97 95 100 100 100 100 100 100 100 100 100 100 100 100 100 100 100 100 100 100
100 100 100 100 100 100 100 100 93 100 6 24 51 20 3 85 73 5 6 20 98 92 5 88 99 100 100 100 100 100 100 100 100 100 100 100 100 100 100 100 100 100 100 100 100 100 100
100 100 100 100 100 100 100 100 100 100 94 86 90 95 72 97 5 5 35 69 57 100 6 6 92 73 33 100 100 92 87 100 100 100 100 100 100 100 100 100 100 100 100 100 100 100 100
100 100 100 100 100 100 100 100 100 100 37 100 87 52 89 52 99 87 53 13 67 56 5 33 73 71 7 38 5 5 5 10 55 100 100 100 100 100 100 100 98 88 100 91 100 100 100
100 100 100 100 100 100 100 100 100 100 100 97 100 100 92 82 100 100 90 64 5 14 73 98 76 95 74 54 5 5 85 66 64 86 97 75 95 100 100 100 96 100 100 100 100 100 100
100 100 100 100 100 100 100 100 100 100 100 83 52 100 100 85 100 100 100 100 65 66 100 99 75 88 60 41 84 88 95 99 58 55 98 94 29 92 100 100 100 100 100 100 100 100 100
100 100 100 100 100 100 100 100 100 100 100 100 95 80 98 95 94 76 97 100 100 100 100 100 100 23 7 100 92 100 100 98 98 83 98 53 91 94 98 99 100 100 100 100 100 100 100
100 100 100 100 100 100 100 100 100 100 100 100 100 100 98 100 96 98 99 99 100 100 99 100 88 50 78 100 74 100 100 74 100 100 100 41 48 68 96 100 97 86 23 99 90 100 100
100 100 100 100 100 100 100 100 100 64 100 100 100 99 100 100 100 61 85 91 99 100 100 61 14 84 90 84 95 100 99 100 88 100 100 100 100 100 100 100 99 15 60 100 100 100 100
100 100 100 100 100 100 100 94 95 100 100 100 100 100 100 100 96 43 15 18 48 94 87 98 58 93 58 100 100 89 100 80 86 100 80 98 89 100 100 100 100 100 100 100 100 100 100

GFSGBSN_prec_cloud_114.txt.gz
Cloud_Cover
77 84 79 100 100 100 78 87 100 100 99 100 100 100 100 77 52 100 98 8 53 100 93 77 85 80 100 100 100 100 17 56 98 100 71 51 6 16 15 37 42 2 4 0 0 2 5
100 99 98 87 100 100 100 99 100 100 100 100 100 100 100 100 100 100 100 100 100 100 100 100 72 47 89 100 100 100 100 100 100 100 100 100 73 4 4 5 2 37 5 5 4 0 3
100 100 100 100 100 100 100 100 100 100 100 100 100 100 100 100 100 100 100 100 100 100 100 100 100 37 54 7 2 26 99 100 100 100 100 100 85 62 0 0 0 0 5 43 4 5 0
100 100 100 100 100 100 100 100 100 100 100 100 100 100 100 100 100 100 100 100 73 100 52 15 78 38 46 88 100 100 9 5 10 20 4 0 1 4 1 0 0 0 2 5 64 5 5
100 100 100 100 100 100 88 81 81 99 100 100 100 100 100 100 100 100 100 88 94 100 38 81 97 5 3 4 1 8 3 1 0 0 0 0 0 0 0 0 0 0 0 0 73 33 12
100 100 100 100 100 100 99 100 98 100 100 94 74 96 100 100 100 100 100 100 100 95 96 9 5 4 0 3 0 0 0 0 0 0 4 2 0 0 0 0 0 0 0 2 2 5 96
100 100 100 100 100 100 100 100 100 100 100 54 100 91 5 6 5 3 5 4 5 0 0 0 0 0 0 0 0 0 4 5 3 0 0 4 73 0 0 0 0 0 0 5 0 1 90
100 100 100 100 100 100 100 100 100 100 100 100 100 93 81 5 3 1 2 8 8 5 17 3 0 0 1 2 1 0 0 5 57 53 5 40 15 3 0 0 0 0 8 69 90 98 100
100 100 100 100 100 100 100 100 100 100 100 100 100 100 51 5 4 50 3 31 40 1 6 2 1 1 0 0 0 3 0 5 30 100 71 100 25 3 2 0 0 0 4 37 4 100 99
100 100 100 100 100 100 100 100 100 100 100 100 100 100 100 5 38 26 4 0 5 35 38 16 43 0 0 0 2 0 0 12 26 20 100 99 81 68 99 1 4 0 1 4 99 100 88
100 100 100 100 100 100 100 100 100 100 100 100 100 100 97 100 25 5 3 4 5 54 9 3 4 0 0 62 4 0 0 3 98 80 100 100 100 100 100 0 16 14 76 69 100 97 33
100 100 100 100 100 100 100 100 100 100 100 100 100 100 100 100 26 4 2 1 80 82 69 41 1 0 0 2 5 17 7 56 59 100 100 99 87 80 86 76 13 61 100 100 99 65 82
100 100 100 100 100 100 100 100 100 100 100 100 100 100 100 85 44 22 5 12 67 77 16 3 0 0 5 2 5 88 72 99 96 100 100 100 63 41 16 100 43 100 100 100 99 100 75
100 100 100 100 100 100 100 100 100 100 100 100 100 100 100 83 11 5 4 42 84 54 3 0 0 5 4 2 74 6 37 85 100 100 62 91 100 71 5 37 96 97 7 79 100 100 100
100 100 100 100 100 100 100 100 100 100 100 100 100 100 100 86 28 13 33 89 30 0 0 0 2 78 18 23 96 100 100 100 100 100 74 100 100 100 100 100 91 91 27 100 100 100 100
100 100 100 100 100 100 100 100 100 100 100 100 100 100 100 52 8 13 54 2 0 0 0 5 56 96 79 38 100 100 100 44 92 98 75 100 100 64 100 89 97 96 100 100 100 100 100
100 100 100 100 100 100 100 100 100 100 100 100 100 90 5 5 5 66 27 32 5 0 2 5 83 96 65 100 100 100 100 83 26 6 99 100 100 64 75 87 93 100 100 100 100 100 100
100 100 100 100 100 100 100 100 100 100 100 56 100 85 59 5 80 5 37 1 0 1 19 76 76 100 99 100 100 100 100 96 76 58 92 100 100 100 78 94 100 100 100 100 100 100 100
100 100 100 100 100 100 94 94 100 100 100 100 100 47 66 71 84 89 48 26 18 10 93 65 100 53 84 97 100 100 100 100 84 78 94 100 100 100 98 15 85 98 100 100 100 100 100
100 100 100 100 100 100 100 100 100 100 92 99 100 98 55 34 6 5 37 61 14 84 27 48 84 87 93 81 98 100 96 100 96 98 93 100 100 100 100 100 88 100 100 100 100 100 100
100 100 100 100 100 100 100 100 100 99 76 100 95 49 10 76 84 26 20 5 45 93 76 70 70 100 100 58 56 99 100 100 100 100 77 100 100 100 100 100 97 95 36 100 100 100 100
100 100 100 100 100 100 100 100 100 100 100 100 98 89 51 99 5 5 40 64 64 82 84 53 100 87 100 100 100 78 72 86 100 100 54 100 100 100 100 100 100 100 100 100 100 100 100
100 100 100 100 100 100 100 100 100 99 100 100 99 82 97 47 97 70 100 10 5 3 3 32 34 5 19 87 28 5 5 5 93 100 65 72 100 96 100 100 100 100 100 100 100 100 100
100 100 100 100 100 100 100 100 100 98 100 86 94 69 100 100 100 98 100 91 100 95 15 5 5 36 31 58 34 11 6 91 100 99 100 99 79 97 100 100 100 100 100 94 94 78 100
100 100 100 100 100 100 100 100 100 100 100 77 67 100 100 100 96 75 100 95 89 96 98 79 68 57 34 84 48 15 6 75 85 100 98 100 100 51 100 100 100 100 100 100 100 100 100
100 100 100 100 100 100 100 100 100 100 100 100 100 100 100 100 99 98 98 67 100 95 55 94 37 5 6 56 18 59 98 60 100 100 6 77 15 76 100 100 100 100 100 100 100 100 100
100 100 100 100 100 100 100 100 100 100 100 100 100 100 100 100 97 98 98 92 97 81 87 86 28 11 82 82 93 89 66 85 95 100 89 25 29 82 78 89 100 99 100 100 100 100 100
100 100 100 100 100 100 100 100 100 100 100 100 100 100 99 99 85 41 51 6 53 78 98 26 16 96 53 42 94 86 89 71 60 97 86 100 95 88 68 78 100 100 99 100 100 100 100
100 100 100 100 100 100 100 100 100 100 100 100 100 100 95 100 61 39 6 5 6 8 75 65 48 8 74 85 76 77 70 66 82 98 100 94 95 100 100 100 100 100 100 100 100 100 98

GFSGBSN_prec_cloud_117.txt.gz
Cloud_Cover
100 99 100 100 84 92 20 5 98 100 100 100 100 100 100 30 100 93 100 100 100 100 100 61 56 80 100 96 100 100 74 98 98 100 100 100 100 100 100 100 99 25 88 49 5 6 5
100 100 100 100 99 100 87 96 96 96 100 100 100 98 100 100 100 100 100 100 100 100 100 86 59 94 100 100 100 100 98 25 99 85 27 91 100 100 100 100 100 100 100 100 70 11 64
100 100 100 100 100 100 100 99 100 100 100 100 100 100 100 100 100 100 100 100 100 100 96 51 63 86 100 95 100 100 100 100 100 53 80 99 56 56 34 11 21 50 86 100 100 100 2
100 100 100 100 100 100 100 100 100 100 100 100 100 100 100 100 100 100 100 100 100 100 100 100 100 100 99 87 86 42 7 53 63 26 69 82 88 94 100 93 59 13 0 0 97 100 0
100 100 100 100 100 100 100 100 100 100 100 100 100 100 93 34 89 56 93 100 100 100 100 100 100 100 100 99 98 100 26 5 5 5 8 24 5 2 0 0 0 0 0 0 29 4 0
100 100 100 100 100 100 100 100 100 100 100 97 99 100 100 65 80 43 11 70 5 0 27 100 99 84 14 10 22 8 1 0 0 0 0 0 0 0 0 0 0 0 0 0 0 1 0
100 100 100 100 100 100 100 100 100 100 100 100 100 100 100 100 100 100 89 86 5 22 0 0 0 0 0 0 0 0 0 0 0 0 0 0 4 0 0 0 0 0 18 0 0 0 0
100 100 100 100 100 100 100 100 100 100 100 100 100 100 100 100 100 100 91 8 49 1 3 4 0 0 0 0 0 0 2 3 0 0 1 28 88 0 7 0 0 6 93 38 0 0 39
100 100 100 100 100 100 100 100 100 100 100 100 100 100 100 100 100 100 100 50 74 8 0 0 0 0 0 0 0 3 0 0 0 0 1 5 63 80 98 2 5 6 100 41 2 10 100
100 100 96 100 100 100 100 100 100 100 100 100 100 100 100 100 100 100 100 13 16 5 22 18 0 0 0 0 0 0 3 5 0 0 0 8 96 100 13 1 23 78 97 81 4 99 100
100 100 100 100 100 100 100 100 100 100 100 100 100 100 100 100 100 100 99 97 94 100 2 0 0 0 0 0 0 0 1 5 3 0 2 84 40 100 100 82 100 3 4 0 28 100 100
100 100 100 100 100 100 100 100 100 100 100 100 100 100 100 100 100 100 100 100 96 49 14 0 0 0 0 0 0 0 0 2 0 0 61 32 95 98 100 69 98 1 1 100 84 100 99
100 100 100 100 100 100 100 100 100 100 100 100 100 100 100 100 100 100 97 97 52 32 1 0 0 0 4 2 0 0 3 2 49 69 75 8 95 100 80 77 49 100 100 100 100 100 24
100 100 100 100 100 100 100 100 100 100 100 100 100 100 100 100 100 100 100 47 65 5 0 0 0 0 4 5 1 0 5 7 3 37 46 94 100 100 99 100 4 100 67 72 100 44 5
100 100 100 100 100 100 100 100 100 100 100 100 100 100 100 100 100 100 100 100 94 5 0 0 0 0 2 0 2 0 4 5 90 97 100 100 100 100 68 100 78 1 87 100 88 55 1
100 100 100 100 100 100 100 100 100 100 100 100 100 100 100 100 100 100 100 62 5 0 0 4 4 0 2 4 1 4 2 3 75 98 91 100 99 100 100 100 67 51 18 2 7 31 22
100 100 100 100 100 100 100 100 100 100 100 100 100 100 100 100 100 100 100 36 5 2 0 19 2 2 5 3 5 73 6 30 5 78 57 100 100 100 100 100 100 100 38 4 98 100 100
100 100 100 100 100 100 100 100 100 100 100 100 100 100 100 100 100 100 100 10 0 0 99 40 98 2 4 5 5 71 45 100 83 5 58 100 82 100 100 100 100 40 100 96 100 100 100
100 100 100 100 100 100 100 100 100 100 100 100 100 100 100 100 100 49 77 30 8 5 0 19 30 54 21 2 29 99 100 68 38 96 100 100 100 100 100 97 100 100 95 100 100 100 100
100 100 100 100 100 100 100 100 100 100 100 97 100 99 62 46 5 20 6 52 64 26 17 4 97 11 5 1 2 55 10 93 97 34 100 100 100 100 100 100 100 82 18 99 100 100 100
100 100 100 100 100 100 100 100 100 100 100 100 100 100 96 68 93 25 0 3 4 63 100 6 10 81 6 2 0 4 5 89 99 70 100 100 100 100 100 100 100 100 16 84 100 100 100
100 100 100 100 100 100 100 100 100 100 100 100 100 98 60 94 8 5 6 87 99 5 44 2 42 5 0 0 59 33 0 0 0 54 100 100 100 100 100 100 100 100 100 100 100 100 100
100 100 100 100 100 100 100 100 100 100 100 100 100 100 100 60 25 49 59 14 28 24 15 43 2 1 5 50 5 0 0 4 5 16 93 100 100 100 100 100 100 100 100 97 100 100 100
100 100 100 100 100 100 100 100 100 100 100 100 100 100 98 96 12 75 79 17 51 39 64 42 99 76 4 3 0 0 0 5 4 25 96 76 100 100 100 100 100 100 100 100 100 100 100
100 100 100 100 100 100 100 100 100 100 100 100 100 90 90 100 92 27 60 97 29 5 68 75 42 4 0 5 5 0 0 43 26 95 83 90 74 100 100 100 100 100 100 100 99 100 100
100 100 100 100 100 100 100 100 100 100 100 100 100 95 100 100 100 93 100 100 71 14 5 74 5 4 3 5 5 5 53 32 85 87 6 100 97 90 100 100 100 100 100 100 100 100 100
100 100 100 100 100 100 100 100 100 100 100 73 53 100 100 97 100 100 91 82 55 26 10 5 2 2 3 5 12 82 25 28 56 34 80 42 100 100 74 65 100 100 100 100 100 100 100
100 100 100 100 100 100 100 100 100 100 94 90 100 100 100 100 100 100 100 81 11 43 16 5 3 14 4 6 70 5 42 4 21 99 99 87 81 98 100 100 100 100 92 98 100 100 100
100 100 100 100 100 100 100 100 100 100 94 100 100 100 100 100 100 100 55 18 5 9 32 5 8 6 84 6 20 5 5 80 20 99 100 99 62 82 98 100 100 100 100 100 100 100 100

GFSGBSN_prec_cloud_123.txt.gz
Cloud_Cover
100 100 100 100 100 100 100 100 99 66 72 98 56 22 100 100 100 100 98 62 91 95 70 90 100 100 100 21 10 5 5 5 5 35 90 89 29 34 21 20 18 7 13 6 5 5 26
100 100 100 100 100 100 100 99 100 100 100 99 99 100 86 99 100 97 30 63 18 10 20 56 100 100 100 19 43 5 5 5 35 99 91 99 100 34 97 100 100 99 10 5 48 23 71
100 100 100 97 100 98 100 100 100 100 51 100 100 100 100 100 99 94 100 97 99 62 79 97 56 18 15 92 98 51 98 22 100 28 100 100 88 63 5 74 100 41 11 72 98 100 100
100 100 100 100 96 100 100 100 100 61 49 50 100 98 99 100 100 90 100 100 100 100 100 99 30 8 5 8 68 44 32 80 100 100 100 100 100 100 100 84 54 5 5 2 90 93 50
100 100 99 100 100 100 100 100 100 100 73 94 94 100 100 58 58 90 100 100 27 72 73 75 32 44 18 5 4 4 3 5 1 2 0 0 0 6 89 2 0 0 0 1 23 100 97
100 100 100 100 100 100 100 100 100 100 100 100 100 97 75 100 82 62 100 95 48 49 40 36 14 56 8 5 29 52 5 0 3 5 2 4 2 5 0 0 0 0 0 0 0 35 0
100 100 100 100 100 100 100 100 100 100 100 100 100 79 99 87 100 100 95 88 45 88 23 5 5 12 5 39 71 57 5 16 19 6 48 74 16 0 0 0 0 0 0 0 0 0 0
100 100 100 100 100 93 100 100 100 100 100 100 100 100 98 89 54 100 100 100 79 94 72 37 55 13 5 35 97 46 63 100 98 96 5 0 0 0 0 0 0 0 1 1 0 0 1
100 100 100 100 98 100 100 100 100 100 100 100 100 80 66 63 92 100 100 92 99 100 83 75 89 41 17 11 83 100 100 24 6 11 0 0 0 0 0 0 0 0 4 5 80 10 97
100 100 100 100 99 100 100 100 100 100 100 99 75 42 49 5 50 100 100 100 100 100 100 100 93 20 32 26 38 28 33 39 47 2 2 0 0 0 0 0 20 5 10 100 98 99 96
100 100 100 100 100 100 100 100 100 100 100 100 100 38 62 62 13 87 100 100 100 100 100 100 100 100 59 81 14 68 56 80 5 4 3 0 0 0 4 4 33 17 96 96 5 84 95
100 100 100 100 100 100 100 100 100 100 90 100 100 83 100 59 92 94 98 100 100 100 100 100 100 100 100 100 91 86 22 5 5 1 1 0 0 2 0 0 5 7 98 28 21 74 98
100 100 100 100 100 100 100 100 100 100 100 100 100 100 100 97 100 100 100 100 100 100 100 100 100 100 100 100 100 91 33 62 7 5 2 2 0 0 1 5 30 6 15 5 20 100 65
100 100 100 100 100 100 100 100 100 100 100 100 100 100 100 100 100 91 100 100 100 100 100 100 100 100 100 100 57 100 27 3 0 0 5 7 8 4 4 17 54 99 14 44 97 100 99
100 100 100 100 100 100 100 100 100 100 100 100 100 100 100 100 100 100 94 100 100 100 100 100 100 100 100 100 75 8 5 5 0 0 3 22 65 3 5 20 89 59 94 100 100 100 100
100 100 100 100 100 100 100 100 100 100 100 100 100 100 100 100 100 100 100 100 100 100 100 100 100 100 100 43 28 6 5 0 3 0 0 0 78 16 81 89 96 79 62 77 100 100 100
100 100 100 100 100 100 100 100 100 100 100 100 100 100 100 100 100 100 100 100 100 100 100 100 100 100 100 85 82 55 3 0 0 0 0 6 46 97 74 100 79 54 77 87 100 100 100
100 100 100 100 100 100 100 100 100 100 100 100 100 100 100 100 100 100 100 100 100 100 100 100 100 100 100 100 100 5 0 0 0 0 0 2 81 100 100 100 88 96 99 100 100 100 100
100 100 100 100 100 100 100 100 100 100 100 100 100 100 100 100 100 100 100 100 100 100 100 100 100 100 100 93 18 0 0 0 0 0 5 5 65 100 100 69 47 9 98 100 100 100 100
100 100 100 100 100 100 100 100 100 100 100 100 96 100 100 100 100 100 100 100 100 100 100 100 100 69 48 43 2 0 0 0 0 5 93 5 83 100 100 100 100 100 44 100 100 100 100
100 100 100 100 100 100 100 100 100 100 100 100 100 100 100 100 100 100 100 100 97 100 88 27 5 16 27 2 0 0 0 0 0 5 12 46 26 99 100 100 100 100 100 100 100 100 100
100 100 100 100 100 100 100 100 100 100 100 100 100 100 100 100 100 100 100 100 100 98 14 5 5 5 0 0 0 0 0 3 3 18 5 5 5 40 100 100 100 100 100 100 99 100 100
100 100 100 100 100 100 100 100 100 100 100 100 100 100 100 100 100 100 100 100 100 6 3 4 5 3 0 0 0 0 0 7 5 13 5 5 10 84 100 100 100 100 100 100 100 100 100
100 100 100 100 100 100 100 100 100 100 100 100 100 100 100 100 100 98 94 100 100 68 7 7 5 5 5 0 0 0 2 5 5 5 83 5 5 54 100 100 100 100 100 100 100 100 100
100 100 100 100 100 100 100 100 100 100 100 100 100 100 100 100 100 100 100 99 5 54 98 10 5 5 5 5 2 3 5 5 5 5 5 5 65 70 100 100 100 100 99 100 100 100 100
100 100 100 100 100 100 100 100 100 100 100 100 100 100 100 100 100 100 100 63 100 99 6 27 70 12 12 5 5 5 5 5 3 5 46 43 5 92 100 100 100 100 72 100 100 100 100
100 100 100 100 100 100 100 100 100 100 100 100 100 100 100 100 100 100 100 100 100 100 65 14 9 30 33 6 5 22 5 7 17 13 29 25 18 79 100 100 99 100 100 100 100 100 100
100 100 100 100 100 100 100 100 100 100 100 100 100 100 100 100 100 96 100 100 100 34 7 5 18 38 10 29 5 5 5 5 32 23 83 91 96 100 100 100 100 100 100 100 100 100 100
100 100 100 100 100 100 100 100 100 100 100 100 100 100 100 100 100 100 100 100 64 57 31 48 34 5 5 5 13 14 29 6 8 43 27 70 91 90 99 100 100 100 100 100 100 100 100

GFSGBSN_prec_cloud_129.txt.gz
Cloud_Cover
100 100 100 100 100 100 100 100 100 100 100 100 100 100 100 100 100 84 100 100 100 99 61 51 100 86 94 100 100 100 70 71 100 59 5 45 22 5 5 5 3 0 0 0 0 0 1
100 100 100 100 100 100 100 100 100 100 100 100 100 100 100 100 100 100 80 100 100 92 88 40 52 100 100 82 100 100 100 96 74 82 90 100 96 8 8 5 5 3 0 4 0 0 0
27 100 100 100 100 100 100 100 100 100 100 100 100 100 100 100 100 100 100 100 100 100 24 5 14 80 100 100 100 100 52 98 100 98 100 100 79 6 7 4 5 0 5 5 6 21 4
0 7 100 100 100 100 100 100 100 100 96 100 81 100 100 100 100 100 100 100 100 100 76 5 5 40 100 100 96 85 100 100 100 81 35 36 67 48 5 3 2 4 5 3 1 1 0
18 7 39 28 100 100 100 100 100 100 100 100 100 84 100 91 100 100 100 100 100 100 100 96 93 82 100 100 100 96 76 32 70 93 90 73 18 5 3 5 5 5 5 5 5 5 0
71 100 86 91 76 100 100 100 93 100 100 100 100 100 100 100 100 100 100 98 100 100 100 100 100 97 68 86 100 91 100 94 18 5 7 25 23 5 5 5 5 5 5 5 5 3 0
100 60 100 100 100 100 100 100 100 100 100 100 100 100 100 100 100 66 80 100 100 99 100 100 100 86 100 75 5 5 100 100 84 38 5 4 5 5 5 5 1 0 0 0 0 0 0
99 100 100 100 100 100 100 100 100 100 100 100 100 100 100 100 100 100 60 86 100 100 100 76 31 100 100 100 99 100 100 9 46 5 5 22 77 6 3 1 0 0 0 0 0 0 5
100 100 100 100 100 99 100 100 100 100 100 100 100 100 100 100 100 100 100 75 100 94 61 19 13 40 41 78 91 5 5 8 89 64 18 7 5 5 4 3 0 0 0 0 3 2 4
43 92 98 100 100 100 100 100 100 100 100 100 100 100 100 100 100 100 86 100 100 93 87 4 6 5 9 5 5 5 5 6 92 93 98 100 49 5 5 5 0 4 0 4 41 93 55
5 0 3 86 82 100 100 100 100 100 100 100 100 100 100 100 100 100 100 100 100 100 44 10 0 5 4 5 10 10 26 34 34 93 100 100 99 98 29 5 4 3 5 5 6 100 94
1 54 79 100 100 100 100 100 100 100 100 100 100 100 100 100 100 100 100 100 100 100 100 84 42 3 3 3 5 5 33 37 87 100 100 100 100 96 7 36 56 1 5 7 41 97 88
55 100 100 100 100 100 100 100 100 100 100 100 100 100 100 100 100 100 100 100 100 100 77 44 31 5 5 5 5 64 10 5 61 100 100 100 100 55 90 89 5 5 49 33 3 36 9
100 99 100 100 100 100 100 100 100 100 100 100 100 100 100 100 100 100 100 100 100 99 14 16 20 14 28 23 6 91 32 75 100 100 100 100 100 100 100 14 50 57 94 99 93 5 2
100 100 100 100 100 100 100 100 100 100 100 100 100 100 100 100 100 100 100 100 100 100 79 90 88 96 100 100 92 92 97 100 100 100 100 100 100 100 5 32 62 100 100 100 100 14 95
100 100 100 100 100 100 100 100 100 100 100 100 100 100 100 100 100 100 98 100 100 100 100 92 100 92 100 94 100 100 100 100 100 100 100 100 99 34 22 36 64 99 74 83 100 97 100
100 100 100 100 100 100 100 100 100 100 100 100 100 88 100 92 100 78 97 95 100 100 100 100 99 100 100 100 100 100 100 100 100 100 100 100 100 19 0 4 27 5 81 92 96 79 100
100 100 100 100 100 100 100 100 100 100 100 100 100 100 100 100 84 66 92 99 100 100 100 100 100 100 100 100 100 100 100 100 100 100 100 87 5 32 0 4 5 5 88 100 100 100 100
100 100 100 100 100 100 100 100 100 100 100 100 100 100 100 100 100 100 100 100 100 100 100 100 100 96 100 100 100 100 100 100 100 100 100 4 8 50 0 41 12 80 91 94 100 100 100
100 100 100 100 100 100 100 100 100 100 100 100 100 100 100 100 100 100 100 100 100 100 100 100 100 100 100 100 100 100 100 100 100 68 5 5 5 5 5 3 97 80 90 93 100 100 100
100 100 100 100 100 100 100 100 100 100 100 100 100 100 100 100 100 100 100 100 100 100 100 100 100 100 100 100 100 100 100 100 79 11 5 5 5 5 5 9 97 100 73 100 100 100 100
100 100 100 100 100 100 100 100 100 100 100 100 100 100 100 100 100 100 100 100 100 100 100 100 100 100 100 100 100 100 100 100 78 2 5 5 5 5 5 39 100 100 100 100 100 100 100
100 100 100 100 100 100 100 100 100 100 100 100 100 100 100 100 100 100 100 100 100 100 100 100 100 100 100 100 100 100 100 54 5 4 5 5 5 15 17 100 100 100 100 100 100 100 100
100 100 100 100 100 100 100 100 100 100 100 100 100 100 100 100 100 100 100 100 100 100 100 100 100 100 100 100 100 100 82 25 5 5 5 5 5 96 63 80 100 100 100 100 100 100 100
100 100 100 100 100 100 100 100 100 100 100 100 100 100 100 100 100 100 100 100 100 100 100 100 100 100 100 100 90 87 57 61 14 5 5 5 15 57 74 76 100 100 100 100 100 100 100
100 100 100 100 100 100 100 100 100 100 100 100 100 100 100 100 100 99 100 100 100 100 100 100 100 100 100 99 100 96 8 5 17 5 5 40 5 34 62 95 100 100 100 100 100 100 100
100 100 100 100 100 100 100 100 100 100 100 100 100 100 100 100 100 100 100 100 100 100 100 100 100 100 91 100 88 31 14 5 5 17 62 46 29 64 96 80 99 100 100 100 100 100 100
100 100 100 100 100 100 100 100 100 100 100 100 100 100 100 100 97 100 100 100 100 100 100 100 99 77 96 100 33 6 5 5 40 50 90 45 80 98 96 82 29 23 90 96 100 100 100
100 100 100 100 100 100 100 100 100 100 100 100 100 100 100 99 88 100 100 100 100 100 100 100 96 100 100 76 43 77 17 11 5 96 29 94 62 90 70 96 98 100 91 98 98 98 99

GFSGBSN_prec_cloud_132.txt.gz
Cloud_Cover
100 100 100 100 100 100 100 100 100 78 98 100 100 100 100 100 95 88 100 100 100 100 100 100 100 80 61 71 71 94 100 100 100 100 100 100 92 17 18 44 32 15 35 7 6 5 5
100 100 100 100 98 100 100 100 100 100 87 100 100 100 100 100 100 100 100 100 100 100 100 100 100 99 32 28 48 100 98 100 100 100 100 100 90 68 61 59 7 16 13 5 5 5 0
100 100 100 93 100 98 59 100 100 100 100 75 100 100 100 100 100 100 100 100 100 100 100 100 100 100 9 64 6 5 86 100 100 100 100 100 100 97 97 94 90 47 5 5 5 5 0
99 92 56 100 100 100 100 100 100 100 100 100 100 100 100 100 100 100 100 100 100 100 100 100 100 100 100 17 26 16 22 72 70 100 100 100 100 100 100 100 100 99 51 24 5 5 4
12 18 41 5 5 2 65 100 100 100 100 100 97 100 100 100 100 100 100 100 100 100 100 100 100 100 100 100 80 66 11 5 6 92 100 100 99 86 67 93 100 99 22 5 5 5 1
22 100 98 10 3 7 5 13 100 100 100 96 99 100 100 100 100 100 100 100 96 100 100 100 100 100 100 100 100 100 100 91 61 18 24 54 99 100 100 82 71 80 95 94 9 4 5
100 78 100 54 100 100 93 100 100 100 100 100 89 100 100 100 100 100 100 100 98 95 100 99 100 100 100 100 100 100 86 10 26 97 67 5 1 0 0 2 4 5 5 6 5 2 0
100 100 100 100 100 100 100 100 100 100 100 100 100 100 100 100 100 100 100 100 100 91 94 48 93 100 100 99 98 100 85 10 5 5 5 5 5 3 2 1 2 4 0 0 0 0 0
100 100 100 100 100 100 100 100 100 100 100 100 100 100 100 100 100 100 100 100 100 98 100 96 60 38 11 50 95 60 95 88 5 3 2 5 4 5 5 5 5 22 5 1 0 0 2
100 99 99 100 100 100 100 100 100 100 100 100 100 100 100 100 100 100 100 100 100 100 100 100 87 90 93 60 17 32 21 5 5 5 1 1 5 5 5 44 7 61 6 5 5 4 5
100 100 100 100 100 85 54 100 99 100 100 100 100 100 100 100 100 100 100 100 100 100 100 63 100 100 100 49 26 15 5 3 5 5 2 0 2 20 82 79 53 20 30 10 12 5 47
100 0 53 56 65 96 99 42 100 100 100 100 100 100 100 100 100 100 100 100 100 100 100 100 92 78 100 100 93 100 86 33 60 7 3 5 5 35 14 33 39 5 40 93 13 5 28
100 16 0 0 37 84 100 64 76 100 100 100 100 100 100 100 100 100 100 100 100 100 100 100 93 100 100 100 100 98 100 23 5 28 18 5 5 88 100 100 92 75 87 14 38 50 4
97 7 2 21 63 100 99 100 100 100 100 100 100 100 100 100 100 100 100 100 100 100 100 100 100 100 100 93 100 100 9 6 46 83 89 14 28 88 87 90 74 90 52 50 99 5 5
100 6 4 100 92 100 100 100 100 100 100 100 100 100 100 100 100 100 100 100 52 100 100 100 100 100 100 58 83 42 5 38 100 99 100 83 87 99 100 100 100 66 74 30 75 85 100
100 80 10 89 100 100 100 100 100 100 100 100 100 100 100 100 100 100 100 79 85 100 100 100 100 100 100 100 90 82 5 98 89 99 100 100 100 97 100 100 100 90 71 82 97 99 100
100 100 97 100 100 100 100 100 100 100 100 100 100 100 100 100 100 100 29 100 100 100 100 100 100 100 100 56 73 80 100 98 100 100 100 100 100 100 100 100 80 89 100 97 79 78 100
100 100 100 100 100 100 100 100 100 100 100 100 100 100 100 100 100 68 100 100 100 99 100 100 100 100 89 100 100 100 100 100 100 100 100 100 100 100 100 100 63 99 89 99 95 100 100
100 100 100 100 100 100 100 100 100 100 100 100 100 100 100 100 100 93 95 87 100 100 54 51 100 100 99 100 100 100 100 85 100 100 100 100 100 100 100 52 80 100 99 98 100 67 100
90 100 100 100 100 100 100 100 100 100 100 100 100 100 100 100 100 95 100 100 83 80 94 98 100 90 100 100 100 100 100 100 100 100 100 100 100 100 54 17 33 96 100 86 98 99 100
100 100 100 100 100 100 100 100 100 100 100 100 100 100 100 100 100 100 100 100 100 100 100 100 100 100 100 100 100 100 100 100 100 100 100 100 100 16 99 98 90 100 100 62 88 100 100
93 100 100 100 100 100 100 100 100 100 100 100 100 100 100 100 100 100 100 100 100 100 100 100 100 100 100 100 100 100 100 100 100 100 100 100 59 5 100 60 100 100 100 82 89 100 100
100 100 100 100 100 100 100 100 100 100 100 100 100 100 100 100 100 100 100 100 100 100 100 100 100 100 100 100 100 100 100 100 100 100 100 100 80 98 97 87 100 100 96 100 96 92 100
100 100 100 100 100 100 100 100 100 100 100 100 100 100 100 100 100 100 100 100 100 100 100 100 100 100 100 100 100 100 100 100 100 100 100 53 99 100 53 80 100 94 100 99 81 100 100
98 100 100 100 100 100 100 100 100 100 100 100 100 100 98 100 100 100 100 100 100 100 100 100 100 100 100 100 100 100 100 100 100 100 12 5 99 100 99 29 90 100 84 100 100 100 100
100 100 100 100 100 100 100 100 100 100 100 100 99 78 98 98 96 100 100 100 100 100 100 100 100 100 100 100 100 100 100 100 97 97 12 6 33 96 100 47 100 98 93 100 100 100 100
100 100 100 100 100 100 100 100 100 100 100 100 99 97 100 100 100 98 100 100 100 100 100 100 100 100 100 100 100 100 100 80 26 50 92 98 100 100 85 94 69 66 9 94 100 100 100
100 100 100 100 100 100 100 100 100 100 100 100 100 95 100 100 85 100 100 100 100 100 100 100 100 100 100 100 100 100 86 48 29 73 88 63 96 96 86 87 99 6 31 66 93 100 100
100 100 100 100 100 100 100 100 100 100 100 100 100 99 100 100 100 91 100 100 100 100 100 100 100 100 100 100 100 90 16 27 23 75 66 91 93 95 83 95 84 17 92 97 100 100 100

GFSGBSN_prec_cloud_135.txt.gz
Cloud_Cover
100 100 100 100 100 100 100 100 100 100 100 100 39 26 66 60 72 7 80 100 100 100 100 29 69 50 71 79 98 75 60 26 70 62 100 59 99 100 100 98 57 5 5 5 6 5 10
100 100 100 100 100 100 100 100 100 100 100 100 99 89 30 5 69 93 100 100 100 100 100 98 98 100 82 43 100 100 100 74 68 59 63 84 99 98 100 51 26 46 73 17 7 10 10
100 100 100 100 100 100 100 100 93 100 100 100 100 90 69 53 5 97 100 100 100 100 100 100 100 100 100 100 100 100 100 77 60 85 100 100 100 100 100 100 100 79 27 59 12 31 100
100 100 100 100 100 100 100 100 100 100 100 100 100 100 100 58 98 54 68 100 81 100 100 100 100 100 100 100 84 100 100 100 96 45 37 68 95 81 100 100 100 100 100 100 78 98 92
61 74 41 80 74 100 100 100 75 100 100 100 100 100 100 100 100 86 96 86 82 100 100 100 100 100 100 100 100 100 100 100 100 100 82 55 65 32 43 90 100 100 100 38 95 100 100
5 46 71 14 41 28 93 46 97 6 100 100 100 100 100 100 100 100 91 8 93 100 100 100 100 100 100 100 100 100 100 100 100 100 100 100 100 100 100 100 100 61 8 45 90 5 24
5 97 7 100 84 64 100 100 5 4 4 100 100 100 100 100 100 100 100 92 86 99 100 100 100 100 49 80 100 100 100 100 100 100 100 100 100 99 84 11 47 5 5 2 0 2 2
100 100 100 100 100 100 89 91 46 90 34 73 100 100 100 100 100 100 100 100 100 100 100 100 100 100 100 25 71 100 100 100 100 100 100 100 87 14 5 2 2 0 1 1 2 0 0
100 100 79 100 100 100 100 100 100 95 100 100 100 100 100 100 100 100 100 100 100 100 100 100 93 100 100 99 5 50 94 92 100 98 100 100 19 47 21 5 2 2 0 0 2 4 3
17 78 94 14 100 100 100 100 100 100 100 100 100 100 100 100 100 100 100 100 100 100 100 100 100 100 100 100 100 91 79 38 6 5 5 5 5 4 5 2 4 1 0 0 0 3 3
100 48 5 58 100 87 100 100 100 100 100 100 100 100 100 100 100 100 100 100 100 100 100 100 97 6 100 100 100 100 100 100 80 46 41 10 37 48 2 0 0 0 0 0 0 5 5
27 0 0 4 1 2 62 8 36 100 100 100 100 100 100 100 100 100 100 100 100 100 100 100 97 98 67 100 100 100 100 100 100 100 40 18 22 5 1 0 0 0 1 1 5 3 3
0 0 0 0 1 7 0 0 0 0 65 100 100 100 100 100 100 100 100 100 100 100 100 100 100 90 84 100 100 100 100 100 100 100 96 96 12 5 1 0 4 5 5 5 34 94 82
0 9 30 6 25 14 0 0 63 93 100 100 100 100 100 100 100 100 100 100 100 100 100 100 100 100 100 86 98 100 100 100 100 100 99 9 5 5 4 0 6 5 26 21 25 20 27
5 99 100 22 13 8 40 88 100 100 100 100 100 100 100 100 100 100 100 100 100 100 100 100 100 100 100 100 100 86 98 99 100 100 100 78 28 5 4 2 5 59 96 40 28 5 39
5 92 85 37 4 70 75 100 89 100 100 100 100 100 100 100 100 100 100 100 100 100 100 100 100 86 9 42 100 100 93 100 100 100 97 76 10 5 6 19 32 76 86 100 97 47 73
5 73 80 100 37 95 100 92 100 100 100 100 100 100 100 100 100 100 100 100 100 100 100 100 100 100 96 100 100 100 100 100 100 100 98 89 21 35 5 97 96 100 100 99 44 65 100
5 97 67 100 100 100 100 100 100 100 100 100 100 100 100 100 100 99 100 100 100 100 100 100 100 100 100 88 100 100 100 100 100 100 100 100 100 100 94 100 99 100 97 79 83 77 100
58 18 99 100 100 100 100 100 100 100 100 100 100 100 100 100 100 100 100 100 87 100 100 100 100 99 71 76 96 99 100 100 100 100 100 100 100 100 100 100 100 100 30 22 94 100 74
47 27 27 100 100 100 100 100 100 100 100 100 100 100 100 100 100 100 100 100 100 100 100 100 99 100 94 99 79 100 100 100 100 100 100 100 100 100 100 100 100 88 98 78 94 100 100
62 74 100 100 100 100 100 100 100 100 100 100 100 100 100 100 100 100 100 100 100 100 100 100 100 100 100 100 89 89 99 100 100 100 100 100 100 100 100 100 100 68 52 39 87 100 100
83 14 100 100 100 100 100 100 100 100 100 100 100 100 100 100 100 100 100 100 100 100 100 100 43 83 100 100 100 100 100 100 100 100 100 100 100 100 100 67 36 6 82 100 93 99 100
78 77 100 100 100 100 100 100 100 100 100 100 100 100 100 100 100 100 100 100 100 100 100 100 100 100 100 100 100 100 100 100 100 100 100 100 100 100 100 100 62 100 61 46 89 99 100
5 27 100 100 100 100 100 100 100 100 100 100 100 100 100 100 100 100 100 100 100 100 100 100 100 100 100 100 100 100 100 100 100 100 100 100 100 100 100 35 99 85 59 83 100 100 100
100 49 100 100 100 100 100 100 100 100 100 100 100 100 100 100 100 100 100 100 100 100 100 100 100 100 100 100 100 100 100 100 100 100 100 100 100 100 44 100 80 98 92 89 97 100 100
96 77 100 100 100 100 100 100 100 100 100 100 100 100 100 100 100 100 100 100 100 100 100 100 100 100 100 100 100 100 100 100 100 100 100 100 100 37 97 96 100 100 71 30 87 100 100
80 99 100 100 100 100 100 100 100 100 100 100 100 99 100 100 100 100 100 100 100 100 100 100 100 100 100 100 100 100 100 100 100 100 100 99 99 66 93 64 95 92 76 52 100 94 100
99 79 100 100 100 100 100 100 100 100 100 100 100 100 99 100 89 93 99 100 100 100 100 100 100 100 100 100 100 100 100 100 100 100 93 36 89 69 93 96 96 20 56 74 89 96 99
57 97 92 100 100 100 100 100 100 100 100 100 100 100 100 64 100 90 96 96 97 99 100 100 100 100 100 100 100 100 100 100 100 94 53 84 42 96 38 97 87 62 39 94 89 100 100

GFSGBSN_prec_cloud_141.txt.gz
Cloud_Cover
100 100 100 100 100 100 100 100 100 100 100 100 100 100 100 100 100 79 98 100 38 24 51 23 15 5 82 91 87 16 55 7 11 98 78 17 19 40 92 81 7 7 5 67 36 99 12
100 100 100 100 100 100 100 100 100 100 100 100 100 100 100 100 100 100 100 98 11 20 16 5 26 72 27 15 7 75 97 56 25 90 100 77 71 92 96 100 98 85 63 53 75 65 31
98 100 100 100 100 100 100 100 100 100 100 100 100 100 100 100 100 100 100 100 99 100 100 89 99 92 16 5 5 6 96 98 6 56 86 80 64 68 100 100 100 100 92 14 94 100 79
67 32 29 100 100 100 100 100 100 100 100 100 100 100 100 100 100 100 96 100 92 41 28 62 11 5 5 4 0 5 5 10 100 91 100 98 24 90 99 100 100 100 61 100 100 100 100
7 5 47 79 99 100 100 100 100 100 100 100 100 100 100 100 100 100 100 100 100 57 7 5 4 5 5 5 3 5 3 5 36 99 100 100 100 100 82 47 100 100 100 100 100 94 27
96 23 5 5 13 93 100 100 100 100 100 100 100 100 100 100 100 100 100 100 96 100 97 57 34 3 5 5 1 1 1 5 6 56 100 100 100 100 100 100 100 100 95 100 100 100 43
16 5 28 16 5 6 76 94 34 100 90 100 100 100 100 100 100 100 100 100 100 100 96 93 55 100 100 88 5 2 2 0 26 10 24 98 100 100 100 100 100 100 100 100 100 100 100
6 6 58 58 100 80 99 6 7 6 5 5 6 96 100 100 100 100 100 100 97 100 100 100 100 100 96 6 90 7 1 1 0 4 5 18 99 100 100 100 100 100 100 100 100 100 100
100 46 90 72 5 58 27 50 5 10 9 19 17 4 55 100 100 100 100 100 100 100 100 100 100 100 100 78 96 100 9 2 3 5 5 9 60 99 100 100 100 100 100 100 100 100 100
97 98 58 11 80 52 94 77 100 100 87 31 5 16 81 100 99 97 100 100 100 100 100 41 100 100 100 100 17 100 47 94 80 2 2 0 17 99 100 100 100 100 100 100 100 100 100
100 100 93 100 12 5 94 100 100 100 100 100 100 100 100 100 100 100 100 100 100 100 100 100 16 100 100 88 86 100 14 98 83 100 8 0 5 34 100 100 100 100 100 100 100 80 36
100 100 100 92 100 7 21 69 100 100 100 100 100 100 100 100 100 100 100 100 100 100 100 34 75 100 100 100 100 100 6 24 95 100 46 27 5 87 100 100 100 100 100 100 100 100 100
100 68 45 80 100 8 52 95 91 82 100 100 100 6 98 93 95 100 100 100 100 100 100 100 100 100 100 100 99 15 5 80 100 97 100 100 68 27 100 100 100 100 100 100 100 26 54
28 93 12 5 84 82 22 50 22 73 76 99 6 5 42 96 89 100 100 100 99 14 99 100 100 96 70 100 100 92 95 99 100 100 100 100 100 61 78 100 100 100 100 100 86 11 5
16 100 55 100 12 5 4 0 0 0 0 26 99 100 96 100 100 100 100 100 52 5 90 96 98 90 100 100 100 100 89 100 100 100 100 100 100 100 53 96 100 7 5 5 5 5 7
5 22 18 5 5 14 48 82 58 27 14 99 100 100 100 100 100 100 100 100 45 0 3 85 90 5 96 100 100 100 100 100 100 100 100 100 100 100 100 100 100 47 70 50 10 5 22
4 5 7 2 0 91 100 100 73 28 54 100 100 100 100 100 100 100 100 64 3 1 4 5 60 64 3 100 100 100 100 100 100 100 100 100 100 24 22 99 53 15 100 80 33 5 5
98 5 5 5 10 100 100 32 100 99 97 100 100 100 100 100 100 100 100 4 7 6 25 6 11 100 7 98 100 100 100 100 100 100 100 100 100 100 100 100 100 100 100 99 48 94 100
100 66 6 7 12 100 27 91 100 100 100 100 100 100 100 100 100 100 96 66 65 4 45 5 51 6 84 100 100 97 100 100 100 100 100 100 100 100 100 100 99 100 91 94 91 100 100
100 100 18 9 8 100 91 100 100 100 100 100 100 100 100 100 100 75 89 100 36 16 5 6 8 79 99 100 35 100 100 100 100 100 100 100 100 100 100 29 33 100 94 99 100 100 100
100 100 100 88 100 100 100 100 100 100 100 100 100 100 100 100 100 100 15 5 86 40 64 7 94 78 39 31 99 100 100 96 100 100 100 100 100 100 99 98 78 83 100 100 100 100 100
100 100 86 5 5 84 100 100 100 100 100 100 100 100 100 90 100 100 99 87 11 5 4 5 5 6 100 100 100 100 100 100 100 100 100 100 100 100 100 57 98 99 100 100 100 100 100
100 100 10 15 8 31 100 100 100 100 100 100 100 97 100 100 100 100 86 23 26 66 60 53 95 100 100 100 100 100 100 100 100 100 100 100 100 100 100 100 100 100 100 100 100 100 98
100 67 74 5 46 6 79 100 100 100 100 100 100 100 100 100 100 100 100 100 100 100 100 100 100 100 100 100 100 100 100 100 100 100 100 100 100 100 100 100 100 100 100 100 100 100 100
100 58 100 5 5 18 100 100 100 100 100 100 100 100 100 100 100 100 100 100 100 100 100 98 100 100 100 100 100 100 100 100 100 100 100 100 100 100 100 100 100 100 100 100 100 100 56
100 5 43 5 5 63 100 100 100 100 100 100 100 100 100 100 100 100 100 100 100 100 100 100 100 100 100 100 100 99 99 100 100 100 100 100 100 100 100 100 100 100 100 100 96 31 74
100 52 34 17 36 100 100 100 100 100 100 100 100 100 100 100 100 100 100 100 100 100 100 100 100 100 100 97 100 100 100 100 100 100 100 100 100 100 100 100 100 100 91 60 91 6 70
100 56 8 28 100 100 100 100 100 100 100 100 100 100 100 100 100 100 100 100 100 100 100 100 100 100 100 100 100 100 100 100 100 100 100 100 100 100 100 100 100 100 32 7 5 5 23
100 100 53 8 100 100 100 100 100 100 100 100 100 100 100 100 100 100 100 100 100 100 100 100 100 100 100 100 100 100 100 100 100 100 100 100 100 100 100 100 96 18 5 5 5 5 5

GFSGBSN_prec_cloud_144.txt.gz
Cloud_Cover
80 74 97 100 100 100 100 100 100 100 100 100 100 100 100 100 100 100 100 100 100 100 80 36 26 24 6 8 2 0 4 5 5 7 8 5 5 18 87 64 51 5 10 100 100 19 7
63 76 100 95 100 100 100 100 100 100 100 100 100 100 100 100 100 100 100 100 100 100 100 70 40 24 19 58 75 2 4 5 9 5 5 4 5 5 52 98 26 5 53 100 100 100 100
99 80 100 100 100 100 100 93 100 100 100 100 100 100 100 100 100 100 100 100 100 100 100 100 100 100 90 47 5 5 93 42 17 5 5 5 3 5 20 89 94 85 96 100 100 100 100
82 85 100 100 95 100 100 100 100 100 100 100 100 100 100 100 100 100 100 100 100 100 100 100 72 73 81 92 100 60 3 5 31 5 5 5 5 5 5 6 88 87 100 70 92 100 100
10 86 81 100 100 52 96 100 100 26 99 100 100 100 100 100 100 100 100 100 100 100 100 100 99 18 51 40 38 28 6 23 1 1 2 4 17 6 13 46 100 100 100 96 99 94 100
100 96 86 43 94 83 97 64 82 60 16 90 100 100 100 100 100 100 100 100 100 100 100 100 100 100 99 89 10 5 5 5 3 5 4 5 8 96 7 96 100 100 100 100 100 100 99
100 100 92 70 5 86 54 49 46 100 40 7 26 100 100 100 100 100 100 100 100 100 100 100 100 99 95 67 63 5 37 5 9 35 3 5 2 0 0 0 96 100 100 100 100 100 92
100 100 92 38 92 100 73 31 6 35 99 50 5 5 65 94 100 100 100 100 100 100 100 100 99 99 100 15 81 15 4 6 20 46 24 13 6 0 0 0 2 31 100 100 100 100 100
100 100 100 100 100 84 76 87 90 72 87 100 100 92 47 100 100 98 100 100 100 100 28 89 100 100 100 100 89 89 34 6 5 23 15 44 55 4 5 0 3 5 89 100 100 100 100
100 100 100 100 100 100 100 100 100 100 100 99 72 84 100 100 99 100 95 100 81 95 50 4 48 62 37 96 100 100 100 100 100 100 100 100 100 93 5 4 0 0 3 3 85 100 100
100 100 100 100 100 100 100 100 100 100 100 100 93 66 100 60 91 92 100 100 100 95 100 35 19 83 100 100 100 100 100 100 100 100 100 100 100 41 5 9 38 14 2 5 50 100 100
100 100 100 100 100 100 100 100 100 100 100 100 100 99 48 100 100 90 86 99 75 100 100 100 92 91 98 100 100 100 100 100 100 100 100 100 100 25 5 18 100 100 62 62 100 100 98
100 100 100 100 100 100 100 100 100 100 100 100 100 100 98 100 99 96 88 78 91 98 92 88 100 98 37 86 100 100 100 44 76 100 100 98 40 64 38 95 100 100 100 100 100 100 100
100 100 100 100 100 100 100 100 100 100 100 100 100 90 98 80 100 100 100 84 45 10 5 20 92 59 63 87 26 100 100 100 99 100 100 100 100 100 100 99 93 100 100 100 100 26 14
100 100 100 100 100 100 100 100 100 100 100 85 87 100 86 63 100 100 100 96 4 0 3 98 89 41 73 5 8 70 6 37 100 100 100 100 100 100 100 100 100 100 100 76 63 70 5
100 100 100 100 100 78 100 100 100 100 95 100 92 100 97 93 96 100 100 62 3 1 3 2 3 0 5 6 15 7 44 9 100 100 100 100 100 100 100 100 100 100 100 93 100 95 62
100 100 100 100 100 79 85 99 100 100 26 100 100 100 96 67 87 100 100 4 0 0 0 0 2 14 5 7 22 100 97 41 100 100 100 100 100 100 100 100 100 100 96 90 100 100 86
85 86 76 91 100 100 99 100 100 41 93 100 100 94 97 27 100 100 96 4 4 0 0 0 0 0 7 100 100 91 8 53 33 100 100 100 100 100 100 100 100 100 100 100 100 100 56
100 97 23 29 10 84 82 100 100 49 100 100 100 100 100 100 90 100 92 51 5 4 5 5 4 5 5 92 98 70 97 96 96 94 100 100 100 100 100 100 100 100 100 100 100 100 47
100 100 100 100 100 89 87 100 100 95 100 100 100 100 100 100 46 60 100 100 54 5 5 5 0 28 24 36 89 99 100 98 98 94 100 100 100 100 100 100 100 100 100 100 97 100 100
100 100 100 100 100 100 100 100 100 100 100 100 100 100 100 100 100 100 100 93 86 53 5 2 89 5 5 86 67 94 98 100 100 100 100 100 100 100 100 100 100 100 100 100 100 100 50
100 100 100 100 100 100 97 98 100 100 100 100 100 100 100 100 100 100 100 72 58 48 5 5 5 50 10 73 5 0 39 100 100 100 100 100 100 100 100 100 100 100 100 100 100 75 100
100 100 100 100 100 72 96 100 99 100 100 100 100 100 100 100 100 100 100 68 60 6 54 4 2 3 5 4 18 98 100 100 100 100 100 100 100 100 100 100 100 100 100 100 100 100 100
100 100 100 100 88 81 100 100 98 100 100 100 100 100 100 100 100 100 73 92 59 29 9 13 16 29 62 93 100 99 100 100 100 100 100 100 100 100 100 100 97 100 100 100 100 100 100
100 100 100 100 100 92 100 100 98 100 100 100 100 100 100 100 98 100 99 99 89 100 100 48 92 95 100 100 100 100 100 100 100 100 100 100 100 100 100 80 90 100 100 100 100 100 100
100 100 93 93 5 42 100 100 100 100 100 100 100 100 100 100 79 100 93 100 100 100 92 100 100 100 100 100 100 100 100 100 100 100 100 100 100 100 100 100 100 100 100 100 100 100 100
100 100 100 100 100 54 89 100 100 100 100 100 100 100 100 99 100 91 100 100 100 100 100 100 100 100 100 100 100 100 100 100 100 100 100 100 100 100 100 100 100 100 100 100 100 100 100
100 100 100 100 100 98 93 100 100 100 100 100 100 100 100 100 100 100 100 100 100 100 100 100 100 100 100 100 100 100 100 100 100 100 100 100 100 100 100 100 100 100 100 100 100 100 10
100 100 100 100 100 100 96 100 100 100 100 100 100 100 100 100 100 100 100 100 100 100 100 100 100 100 100 100 100 100 100 100 100 100 100 100 100 100 100 100 100 100 100 100 100 63 6

GFSGBSN_prec_cloud_147.txt.gz
Cloud_Cover
100 100 100 97 98 100 100 100 100 100 100 100 100 92 100 93 100 82 91 22 92 100 100 100 100 100 100 100 65 38 7 5 5 0 0 5 6 20 98 80 100 79 29 18 5 63 90
100 100 100 98 100 100 100 100 100 100 100 100 98 100 100 100 96 87 95 100 100 100 100 100 100 100 100 100 90 98 19 11 10 4 5 3 6 16 28 12 26 11 5 16 8 56 24
100 100 62 100 85 94 100 88 100 100 100 100 100 100 100 100 100 100 93 100 100 99 100 100 100 100 100 100 100 100 100 100 99 97 95 5 5 6 5 5 5 6 5 5 88 23 66
100 100 100 89 79 55 42 40 72 96 100 100 100 100 100 100 100 100 100 100 100 100 100 100 100 100 100 100 100 100 100 100 100 99 69 27 5 5 5 5 5 5 4 5 5 12 5
97 85 100 100 100 96 29 68 77 17 95 100 100 95 94 100 100 100 100 100 100 100 100 100 100 100 100 100 100 100 100 99 24 36 5 0 5 4 4 5 53 98 96 26 5 5 5
36 95 100 100 95 100 92 98 99 98 81 96 98 97 36 96 100 100 100 96 100 100 100 100 100 100 100 100 100 100 100 100 100 90 10 5 4 5 5 5 39 44 100 96 85 25 6
100 100 100 98 11 100 100 100 100 100 100 100 100 100 87 36 95 100 100 91 100 100 100 100 92 100 73 98 100 100 100 100 100 100 28 5 21 7 1 33 84 4 3 5 5 0 0
100 100 100 100 100 100 100 100 100 100 100 79 94 85 70 89 100 98 100 92 62 62 100 100 100 100 100 100 97 98 100 100 100 100 86 40 18 4 5 5 37 49 22 2 3 5 0
100 100 100 100 100 100 100 100 100 100 100 64 91 70 82 100 76 69 92 100 97 94 6 83 17 86 100 82 100 99 43 37 85 58 75 35 44 58 5 3 2 45 72 34 3 16 5
100 100 100 100 100 100 100 100 100 100 100 100 81 92 100 100 57 94 86 94 100 88 51 36 70 5 70 43 71 100 100 100 90 98 100 2 5 3 3 4 4 0 53 32 27 34 4
100 100 100 100 100 100 100 100 100 100 100 100 100 100 100 100 100 100 100 100 92 100 64 14 38 100 83 97 89 98 100 100 100 100 100 99 100 100 100 100 100 100 100 100 98 100 96
100 100 100 100 100 100 100 100 100 100 100 100 100 100 100 100 100 100 100 100 100 97 66 71 66 82 100 99 100 72 92 100 100 100 100 100 100 100 100 100 100 100 100 100 100 92 33
100 100 100 100 100 100 100 100 100 100 100 100 100 100 100 100 100 100 100 100 100 100 52 31 33 58 96 100 100 100 90 100 100 100 99 100 100 100 99 69 73 100 100 94 58 96 52
100 100 100 100 100 100 100 100 100 100 100 100 100 100 100 100 100 100 100 100 100 86 100 100 100 21 4 13 65 100 66 39 100 100 100 100 100 100 100 100 100 100 81 100 100 100 66
100 100 100 100 100 100 100 100 100 100 100 100 100 100 100 100 100 100 100 100 100 100 82 33 12 5 2 4 5 7 3 5 5 74 97 100 100 100 100 100 100 100 90 100 100 100 100
100 100 100 100 100 100 100 100 100 100 100 100 100 100 100 100 100 100 79 100 98 100 97 22 2 5 5 72 74 94 2 0 3 4 98 100 100 100 100 100 100 100 100 100 100 100 100
100 100 100 100 100 100 100 100 100 100 100 100 100 100 100 100 100 100 100 100 100 34 6 2 5 2 1 2 1 13 42 26 0 3 75 74 99 100 100 100 100 100 100 100 100 100 100
100 100 100 100 100 100 100 100 100 100 100 100 100 100 73 14 100 100 100 15 5 5 5 0 0 0 0 3 5 92 25 0 35 100 100 76 87 52 100 100 100 100 100 100 100 100 100
100 100 100 96 100 100 100 100 100 100 100 100 100 98 96 95 100 100 86 32 7 0 0 0 0 0 0 0 2 3 52 4 6 55 75 100 100 84 100 100 100 100 100 100 100 100 100
100 100 100 100 100 100 100 87 99 100 100 100 100 94 100 100 89 24 76 28 92 39 22 6 1 1 0 4 2 5 1 5 28 87 100 100 100 100 78 100 100 100 100 100 100 100 100
100 100 100 100 100 100 100 100 100 100 99 100 100 80 30 96 100 84 66 11 50 99 84 6 5 5 0 4 36 14 28 100 100 100 100 100 99 100 100 100 100 100 100 100 100 100 100
100 100 100 100 100 100 100 100 100 100 100 100 100 99 100 100 97 100 97 100 98 100 100 68 48 5 5 5 5 5 59 100 100 100 100 100 100 100 100 100 100 100 100 100 100 100 100
100 100 100 100 100 100 100 100 100 100 100 100 100 100 100 95 100 100 100 100 18 100 98 5 15 5 5 0 5 6 80 95 99 100 100 100 100 100 100 100 100 100 100 100 100 100 100
100 100 100 100 100 100 100 100 100 100 100 88 100 100 100 80 93 97 100 100 100 71 100 97 27 8 0 23 100 98 96 100 92 98 100 100 100 100 100 100 100 100 100 100 100 100 100
100 100 100 100 100 100 100 100 100 100 100 99 100 100 100 66 96 100 100 100 99 98 100 99 92 55 67 97 98 100 96 59 37 100 100 100 100 100 100 100 100 100 100 100 100 100 96
100 100 100 100 100 100 100 100 100 100 100 100 100 100 100 100 100 95 100 100 100 96 100 99 12 63 94 100 100 100 100 100 88 100 100 100 100 100 100 100 100 100 100 100 100 96 100
100 100 100 100 100 100 100 100 91 99 100 100 100 100 100 100 91 100 100 100 77 88 46 98 98 100 99 99 99 100 100 100 100 100 100 100 100 100 100 100 100 100 100 100 97 100 100
100 100 100 100 100 100 100 96 100 100 100 100 100 100 100 100 100 100 100 99 100 100 100 100 100 100 100 100 100 100 100 100 100 100 100 100 100 100 100 100 100 100 100 100 100 100 100
100 100 100 100 100 100 100 100 100 100 100 100 100 100 100 100 100 100 100 100 100 100 100 100 100 100 100 100 100 100 100 100 100 100 100 85 100 100 100 100 100 100 100 99 100 100 100

GFSGBSN_prec_cloud_150.txt.gz
Cloud_Cover
100 100 100 100 100 100 100 100 100 99 100 98 100 100 100 100 75 8 5 6 94 42 67 98 81 97 85 98 78 100 100 100 61 92 82 42 5 5 2 5 5 5 5 14 79 98 70
100 100 100 100 100 98 100 100 100 100 100 100 100 100 100 100 100 100 85 30 99 100 98 100 100 100 59 100 89 59 100 99 32 45 27 60 7 5 2 6 5 41 38 93 100 66 44
100 100 100 99 100 71 68 100 100 100 100 100 100 100 100 100 100 100 100 100 100 76 100 100 100 100 100 100 100 100 100 100 100 100 99 82 95 100 100 55 5 17 51 10 44 39 15
100 100 100 100 100 100 99 93 100 100 97 100 100 99 95 68 100 100 100 100 99 100 100 100 100 100 100 100 100 100 100 100 100 100 100 100 100 100 100 31 4 5 5 5 6 5 6
100 100 100 100 99 91 100 100 82 100 49 100 43 5 35 100 100 100 100 100 91 85 99 90 100 100 100 100 100 100 100 100 100 100 100 100 100 100 98 44 5 3 5 5 5 6 6
100 97 88 59 86 53 100 100 100 100 100 37 53 98 92 82 100 100 96 100 70 96 86 16 94 100 100 100 100 100 100 100 100 100 100 100 100 100 100 100 92 5 4 0 1 5 5
100 100 94 100 94 25 99 100 100 100 58 66 35 29 70 91 100 100 100 84 55 30 19 5 32 98 100 100 100 100 100 100 100 100 100 100 100 100 100 100 100 97 5 2 0 2 1
100 100 100 100 97 96 95 100 100 100 100 100 100 100 69 94 100 100 100 100 97 24 62 99 69 96 64 90 93 100 100 100 100 100 100 100 100 100 100 100 100 92 44 5 3 0 0
100 100 100 100 100 100 100 100 100 100 100 100 90 100 100 100 98 93 100 100 62 100 14 100 87 100 89 27 51 98 99 100 100 100 100 100 97 99 100 73 51 34 45 6 1 0 0
100 100 100 100 100 100 100 100 100 100 100 100 100 100 100 100 97 100 99 99 80 6 38 100 100 96 79 89 95 99 100 100 100 100 100 100 97 85 100 81 92 33 100 18 2 0 38
100 100 100 100 100 100 100 100 100 100 100 100 100 100 100 100 100 100 100 100 100 92 37 68 86 100 100 100 100 100 100 100 49 87 46 92 100 100 100 100 100 96 100 70 7 100 70
100 100 100 100 100 100 100 100 100 100 100 100 100 100 100 100 100 100 100 100 13 89 90 85 100 78 100 100 100 100 100 100 100 100 80 10 81 86 100 100 100 100 100 100 100 100 77
100 100 100 100 100 100 100 100 100 100 100 100 100 100 100 100 100 100 100 100 96 93 100 100 100 98 100 100 100 100 100 100 100 100 100 100 100 100 100 100 100 100 100 100 100 99 31
100 100 100 100 100 100 100 100 100 100 100 100 100 100 100 100 100 99 100 100 40 90 100 100 100 100 100 100 100 100 100 100 100 100 100 100 100 100 100 100 100 100 100 100 100 100 90
100 100 100 100 100 100 100 100 100 100 100 100 100 100 100 100 100 100 100 100 99 100 100 100 92 96 100 100 99 100 100 100 100 100 100 100 100 100 100 100 82 79 93 100 100 100 100
100 100 100 100 100 100 100 100 100 100 100 100 100 100 100 100 100 94 95 60 100 100 100 100 66 72 79 100 99 100 100 100 100 100 100 97 59 97 100 100 100 96 100 100 100 100 100
100 100 100 100 100 100 100 100 100 100 100 100 100 100 100 100 100 100 100 100 100 100 100 94 47 100 87 98 100 100 100 100 100 100 100 52 72 4 5 4 26 100 100 100 100 100 100
100 96 96 97 100 100 100 100 100 100 100 100 100 84 77 64 100 100 96 100 100 100 99 75 37 95 20 34 100 10 5 6 58 17 30 40 100 9 2 65 64 98 100 100 100 100 100
100 100 100 100 96 77 92 100 100 100 100 100 100 100 100 100 100 100 100 100 100 100 96 60 89 6 1 0 0 0 0 0 5 1 2 15 100 87 32 21 99 99 96 100 100 100 100
100 100 100 100 100 98 29 45 97 69 100 100 100 100 100 100 100 86 100 100 100 54 16 8 5 1 2 0 0 0 0 0 0 0 53 100 100 62 5 94 93 100 100 100 100 100 100
100 100 100 100 100 100 100 100 100 100 96 88 100 73 21 97 100 84 35 45 28 53 10 5 4 4 20 49 5 2 2 4 4 14 100 90 64 47 21 88 100 100 100 100 100 100 100
100 100 100 100 100 100 100 100 100 100 100 100 100 100 100 100 53 100 97 61 5 5 5 5 19 100 100 20 5 5 0 1 38 75 100 93 96 100 98 68 100 100 100 100 100 100 100
100 100 100 100 100 100 100 100 100 100 100 100 100 100 90 100 100 100 100 89 38 48 67 28 96 70 100 92 20 1 52 28 11 100 100 100 100 100 69 100 100 99 72 100 100 100 100
100 100 100 100 100 100 100 100 100 100 100 100 100 100 100 94 100 100 94 100 39 52 82 75 100 100 100 100 99 17 44 44 98 77 95 100 100 100 100 100 96 4 21 100 100 100 100
100 100 100 100 100 100 100 100 100 100 100 100 100 100 100 100 100 100 23 48 64 84 100 99 99 99 92 100 99 63 94 100 89 66 21 94 100 100 100 100 54 70 88 100 100 100 100
100 100 100 100 100 100 100 100 100 100 100 100 100 100 100 100 100 100 6 74 89 100 100 100 100 74 100 100 100 100 86 50 85 88 69 92 100 100 100 100 100 99 100 100 100 100 100
100 100 100 100 100 100 100 100 100 100 100 100 100 95 100 100 100 99 98 100 100 100 100 100 100 100 100 100 100 96 80 69 98 79 100 100 100 100 100 100 100 100 100 100 100 100 100
100 93 100 100 100 100 100 100 100 100 100 100 100 100 100 100 100 64 99 100 100 100 100 100 100 100 100 100 97 100 92 100 100 100 100 100 100 100 100 100 100 100 100 100 100 100 76
77 10 68 100 100 100 100 100 100 100 100 100 100 100 100 100 100 100 100 100 100 100 100 93 100 85 100 100 86 93 100 100 100 100 100 100 100 100 100 100 100 100 71 61 94 100 85

GFSGBSN_prec_cloud_153.txt.gz
Cloud_Cover
100 100 100 100 100 100 100 100 100 100 100 100 100 92 100 100 100 100 81 22 3 4 5 24 50 52 99 48 100 100 100 67 79 89 100 100 100 100 100 54 100 82 40 3 5 5 61
100 100 100 100 100 100 100 100 100 100 100 100 96 100 100 98 94 100 100 100 5 5 5 5 60 66 15 57 38 92 92 83 94 56 87 100 100 100 72 77 95 6 5 5 4 6 44
100 100 100 100 100 100 100 98 100 100 100 100 97 100 100 100 94 94 100 100 9 48 32 5 97 9 16 70 56 100 100 98 84 100 100 100 100 100 100 39 82 48 13 41 7 5 10
100 100 100 100 100 100 100 100 100 94 100 100 96 90 99 98 100 88 99 100 90 37 28 42 17 10 68 47 84 27 97 71 100 100 100 100 100 100 100 100 100 98 91 79 7 5 5
100 100 100 100 100 100 100 100 100 100 92 99 64 95 75 89 89 100 99 73 93 75 81 100 100 99 55 16 5 36 39 100 100 100 100 100 100 100 100 100 100 100 100 100 100 18 3
100 100 100 100 100 100 100 100 100 94 100 80 100 96 53 76 76 100 100 66 96 100 100 99 99 63 98 97 29 27 8 64 100 97 100 92 93 100 100 100 100 100 100 100 95 86 5
100 100 100 100 100 100 100 100 100 100 92 64 74 100 96 40 98 100 49 80 79 100 100 100 100 100 100 88 20 19 5 8 64 100 100 100 100 100 100 100 100 100 100 100 100 100 100
100 100 100 100 100 100 100 100 100 100 99 100 100 100 93 100 99 67 100 92 97 100 92 100 98 100 97 58 69 5 99 23 63 26 99 100 100 100 100 100 100 100 100 100 100 100 91
100 100 100 100 100 100 100 100 100 100 99 100 99 100 100 98 100 100 100 63 100 100 100 100 100 92 79 64 100 100 73 100 81 5 5 18 80 100 100 100 100 100 100 100 100 100 96
100 100 100 100 100 100 100 100 100 100 100 100 100 100 100 100 78 81 100 100 100 100 100 100 100 100 100 100 100 100 100 76 62 17 18 4 10 75 97 100 100 100 100 100 100 89 79
100 100 100 100 100 100 100 100 100 100 100 100 100 100 100 100 100 100 100 100 100 100 100 100 100 100 100 100 100 100 100 100 100 100 70 54 72 97 100 100 95 98 100 94 98 85 94
100 100 100 100 100 100 100 100 100 100 100 100 100 100 100 100 100 100 100 100 100 100 100 100 100 100 100 100 100 100 100 100 100 100 100 100 100 93 100 97 96 100 96 100 100 96 14
100 100 100 100 100 100 100 100 100 100 100 100 100 100 100 100 100 100 100 100 100 100 100 100 100 100 100 100 100 100 100 100 100 100 100 100 100 100 100 100 100 100 100 100 100 97 88
100 100 100 100 100 100 100 100 100 100 100 100 100 100 100 100 100 100 100 100 100 100 100 100 100 100 100 100 100 100 100 100 100 100 100 100 100 100 100 100 100 100 100 100 100 100 100
100 100 100 100 100 100 100 100 100 100 100 100 100 100 100 100 100 100 100 100 100 100 100 100 100 100 100 100 100 98 88 99 100 100 100 100 100 100 100 100 100 100 99 100 100 100 89
100 100 100 100 100 100 100 100 100 100 100 100 100 100 100 100 100 100 100 100 100 100 100 100 100 100 100 100 100 82 5 54 89 92 100 82 81 69 100 100 100 100 100 100 100 100 100
100 90 100 100 100 100 100 100 100 100 100 100 100 100 100 100 100 100 100 100 100 100 100 100 100 100 100 65 12 6 5 7 74 95 93 77 100 96 100 100 100 100 100 100 100 100 100
100 100 100 100 100 100 100 100 100 100 100 100 100 100 100 100 100 90 100 100 100 100 100 100 100 100 90 65 6 6 46 5 5 5 8 33 89 76 100 100 100 100 100 100 100 100 100
100 100 100 100 100 100 100 100 100 100 100 100 100 94 100 98 100 100 100 97 100 100 100 100 100 100 84 88 72 0 4 81 28 4 0 8 63 10 5 34 91 98 72 93 82 100 86
100 100 100 100 100 100 100 100 100 100 100 100 100 100 100 100 100 100 100 100 100 100 100 100 100 100 97 41 3 0 24 21 6 0 0 70 20 19 11 12 8 100 100 100 100 100 88
100 100 100 100 100 100 100 100 100 100 51 78 100 100 100 100 100 100 100 100 100 100 100 100 100 99 6 5 76 5 5 3 0 0 4 4 2 0 1 5 91 58 14 100 100 100 100
100 100 100 100 100 100 100 100 100 100 98 94 100 99 50 83 84 100 100 100 100 94 66 6 5 5 92 50 5 46 88 75 4 0 100 100 25 65 5 92 100 100 38 100 94 100 100
100 100 100 100 100 100 100 100 100 100 100 100 100 73 80 46 60 100 100 100 42 5 9 5 46 100 97 69 99 85 100 5 6 30 75 97 100 95 75 100 100 99 83 100 100 100 100
100 100 100 100 100 100 100 100 100 100 100 100 100 100 94 79 100 99 100 100 95 21 93 50 99 100 69 99 97 79 74 30 42 75 96 32 96 100 88 100 97 95 100 100 100 89 100
100 100 100 100 100 100 100 100 100 100 100 66 100 97 100 100 86 66 97 100 100 100 100 98 99 31 100 100 100 66 13 5 5 5 3 6 83 100 94 96 12 70 100 100 100 57 52
100 100 100 100 100 100 100 100 100 100 100 89 96 100 100 100 95 100 100 100 100 99 83 100 99 100 100 100 100 100 30 37 66 59 10 51 98 100 99 100 100 100 100 100 83 97 100
100 100 100 100 100 100 100 100 100 100 95 100 100 100 100 100 100 100 100 100 100 94 100 99 100 100 100 100 100 100 100 83 53 38 93 100 100 96 100 100 74 100 100 100 100 100 100
100 100 100 100 100 100 100 100 100 100 100 100 100 99 96 100 100 100 100 100 100 97 100 100 100 100 100 100 88 97 6 6 9 24 88 98 100 100 100 100 100 100 100 100 100 100 100
100 100 100 99 100 100 100 100 100 100 100 100 100 99 97 100 100 100 100 100 99 100 100 100 100 94 96 37 93 70 14 79 79 98 100 100 100 90 91 100 100 100 100 100 100 100 100

GFSGBSN_prec_cloud_156.txt.gz
Cloud_Cover
100 100 97 85 100 100 100 100 77 86 100 100 100 100 100 100 100 66 8 5 5 3 2 4 5 2 0 0 4 79 100 99 85 100 100 99 60 66 86 100 100 100 100 87 13 5 5
100 100 100 100 100 100 100 100 100 100 100 100 100 100 100 100 100 100 13 11 5 4 4 6 4 5 5 1 1 5 62 19 64 89 100 94 94 54 68 95 82 30 22 11 10 7 5
100 100 100 100 100 100 100 100 100 100 100 100 100 100 100 100 100 68 41 58 99 9 5 5 8 81 43 6 3 5 53 6 39 83 100 94 33 86 100 100 100 100 80 73 63 69 35
100 100 100 100 100 100 100 100 100 97 97 100 100 91 100 100 100 100 93 5 97 100 30 99 5 32 5 25 27 43 16 5 7 24 47 74 90 14 48 100 100 100 78 100 100 98 83
100 100 100 100 100 100 100 100 100 96 76 100 68 92 82 100 100 100 87 43 76 100 88 64 31 90 24 5 40 79 85 5 6 5 6 75 84 100 100 100 100 100 100 100 100 100 100
100 100 100 100 100 100 100 100 79 73 92 94 62 24 24 68 100 85 54 66 57 51 90 89 76 35 69 7 56 5 5 36 27 20 5 1 14 35 4 29 43 100 100 100 100 100 100
100 100 100 100 100 96 100 100 100 87 100 43 100 100 76 5 19 15 99 53 52 85 82 98 97 79 100 92 19 5 5 7 6 35 5 5 4 5 5 40 60 98 100 100 100 100 100
100 100 100 100 100 100 100 100 100 100 95 89 54 97 96 22 87 93 64 96 64 69 89 99 48 100 26 75 81 100 56 6 100 23 100 21 89 74 5 24 44 62 100 100 100 100 100
100 100 100 100 100 100 100 99 100 100 100 100 100 100 100 90 99 58 83 49 97 89 100 99 100 98 71 100 100 100 80 97 99 100 100 100 77 98 97 19 5 17 6 29 76 100 100
100 100 100 100 100 100 100 100 100 100 100 100 95 100 100 100 64 93 100 77 99 83 100 100 100 100 66 95 88 90 99 100 100 100 100 100 100 100 100 100 58 5 5 5 5 5 26
100 100 100 100 100 100 100 100 100 100 100 100 100 100 100 100 100 100 100 100 100 100 100 100 100 100 100 100 100 100 100 100 100 100 100 100 100 87 99 100 100 100 99 33 74 92 12
100 100 100 100 100 100 100 100 100 100 100 100 100 100 100 100 100 100 100 100 100 100 100 85 98 100 100 100 100 100 100 100 100 100 100 100 100 100 100 100 100 100 100 100 100 89 20
100 100 100 100 100 100 100 100 100 100 100 100 100 100 100 100 100 100 100 100 100 100 86 100 100 100 100 100 100 100 100 100 100 100 100 100 100 100 100 100 100 100 100 100 100 100 78
100 100 100 100 100 100 100 100 100 100 100 100 100 100 100 100 100 100 100 100 100 100 100 100 100 100 100 100 100 100 100 100 100 100 100 100 100 100 100 100 100 100 100 100 100 100 100
100 100 100 100 100 100 100 100 100 100 100 100 100 100 100 100 100 100 100 100 100 100 100 100 100 100 100 100 100 100 100 100 100 100 100 100 100 100 100 100 100 68 59 96 100 98 100
100 100 100 100 100 100 100 100 100 100 100 100 100 100 100 100 100 100 100 100 100 100 100 100 100 100 100 100 100 100 100 100 100 91 74 80 96 22 24 5 5 38 29 70 100 88 100
100 100 100 100 100 100 100 100 100 100 100 100 100 100 100 100 100 100 100 100 100 100 100 100 100 100 100 100 100 100 100 100 100 100 49 5 0 0 3 17 5 7 91 100 100 100 100
100 100 100 100 100 98 100 100 100 100 100 100 100 100 100 100 100 100 100 100 100 100 100 100 100 100 100 100 100 44 99 100 30 7 5 6 3 4 1 5 38 100 100 100 100 54 99
100 100 100 100 100 83 100 100 100 100 100 100 100 100 100 100 99 100 100 100 100 100 100 100 100 100 100 97 86 72 5 43 1 5 5 5 2 7 5 43 46 5 5 97 100 100 44
100 100 100 100 100 86 100 100 100 100 100 100 100 100 100 97 83 82 98 100 100 100 100 100 100 100 100 36 5 5 68 29 54 33 62 5 4 5 0 1 55 95 58 100 100 100 77
100 100 100 100 100 64 100 100 100 100 100 100 100 100 100 100 100 100 100 100 100 100 100 100 100 100 69 10 94 99 6 13 68 95 60 5 5 0 0 2 5 13 13 90 100 87 98
98 100 100 100 100 100 100 100 100 100 100 100 100 100 100 100 100 100 100 100 100 100 100 100 100 100 76 100 100 99 100 100 100 100 41 18 42 17 5 5 56 5 32 100 100 98 100
90 100 100 100 100 100 100 100 100 100 68 100 100 100 100 100 100 100 100 100 100 100 100 100 100 99 100 100 90 86 98 99 83 90 100 99 96 85 19 41 80 31 76 100 73 69 44
97 100 100 100 100 100 87 100 100 100 100 100 100 100 100 48 90 100 97 100 100 100 93 86 98 99 90 86 61 84 86 99 100 100 93 97 100 99 62 100 91 3 77 92 100 100 99
100 100 100 100 100 100 100 100 100 100 100 100 100 100 100 100 61 94 99 99 100 100 100 77 87 78 98 100 100 95 75 100 70 90 98 91 91 100 81 97 54 5 49 39 100 100 100
100 100 100 100 100 100 100 100 100 100 100 100 100 100 100 100 100 48 98 100 100 99 88 100 100 100 99 100 100 100 99 84 68 91 57 34 88 100 99 100 97 52 31 99 46 100 88
100 100 100 100 100 100 100 100 100 100 100 100 100 100 100 100 100 100 100 100 100 100 100 100 100 99 100 100 100 100 100 87 71 68 93 100 99 87 96 100 64 95 25 96 100 100 86
100 100 100 100 100 100 100 100 100 100 100 100 100 100 100 100 100 100 100 100 100 100 100 100 100 100 100 100 100 100 100 98 57 99 82 32 80 99 95 100 99 95 99 96 100 100 100
100 100 100 100 100 100 100 100 100 98 91 92 100 100 100 100 100 100 100 100 100 53 99 100 95 100 100 100 63 89 77 59 74 95 66 60 47 45 99 96 100 100 100 100 100 100 100

GFSGBSN_prec_cloud_162.txt.gz
Cloud_Cover
92 99 94 93 100 100 45 79 100 84 100 93 96 95 67 5 45 15 28 38 49 100 61 100 100 100 100 100 95 5 0 0 0 0 0 0 1 13 11 24 5 49 93 99 92 100 100
100 100 90 94 91 100 99 100 100 89 93 100 98 67 100 100 100 100 61 100 100 100 100 100 100 100 100 100 100 7 4 4 0 0 0 0 0 0 2 5 15 6 57 3 3 9 15
100 100 100 100 100 100 100 100 100 100 100 100 100 94 97 100 100 100 100 100 100 100 100 100 100 100 100 100 100 100 14 55 20 5 10 0 0 0 0 5 7 5 5 1 5 5 5
100 100 100 100 100 100 100 100 100 100 100 100 100 100 100 100 100 100 100 100 100 100 100 100 100 100 100 100 100 100 97 78 92 100 97 5 5 3 0 3 1 0 2 0 0 1 5
100 100 100 100 100 100 100 100 100 100 100 100 100 100 100 100 97 100 100 100 100 100 100 100 100 100 100 100 45 12 64 11 5 3 7 26 5 13 8 7 7 42 20 4 3 2 4
100 100 100 100 100 100 100 100 100 100 100 100 100 100 100 100 83 100 100 100 88 100 100 100 100 100 100 48 100 42 10 16 5 4 1 2 8 46 5 8 85 65 20 74 27 2 5
100 100 100 100 100 100 100 100 100 100 100 100 100 100 100 100 100 98 100 100 91 32 99 100 78 38 99 100 100 100 64 76 74 69 5 44 55 8 99 55 93 34 5 5 7 78 35
100 100 100 100 100 100 100 100 100 100 100 100 100 100 100 100 100 100 100 99 89 89 13 50 36 89 48 82 100 100 100 77 5 5 42 76 100 100 98 80 5 29 22 7 16 99 100
100 100 100 100 100 100 100 100 100 100 100 100 100 100 100 100 100 100 100 100 94 80 50 98 70 8 86 88 100 100 100 100 83 29 56 95 96 77 100 100 94 21 5 5 26 55 44
100 100 100 100 100 100 100 100 100 100 100 100 100 100 100 100 78 100 100 100 100 66 61 94 92 35 61 8 74 100 94 88 61 15 12 71 100 100 87 86 92 45 43 89 100 100 100
100 100 100 100 100 100 100 100 100 100 100 100 100 100 100 100 100 100 100 100 100 73 94 16 100 100 35 97 76 6 5 6 23 81 92 99 100 92 92 100 63 92 100 100 100 100 99
100 100 100 100 100 100 100 100 100 100 100 100 100 100 100 100 100 100 100 100 100 93 96 21 100 100 69 100 100 69 75 52 31 24 64 100 100 46 66 100 100 100 100 100 100 100 100
36 21 94 76 100 100 100 100 100 100 100 100 100 100 100 100 100 100 100 100 100 47 44 36 100 99 86 99 100 100 100 100 100 98 97 95 97 100 100 100 100 100 100 100 100 100 100
16 82 37 100 20 9 100 100 100 100 100 100 100 100 100 100 100 100 100 100 100 96 98 99 74 100 92 64 93 100 97 100 100 100 100 100 100 100 100 100 100 100 100 100 100 100 100
5 37 8 68 100 100 60 44 99 100 100 100 100 100 100 100 100 100 100 100 100 100 100 90 56 100 100 100 66 100 97 100 100 100 100 100 100 100 99 98 100 100 100 100 100 100 98
4 3 27 11 29 100 100 100 100 97 100 100 100 100 100 100 100 100 100 100 100 100 100 100 100 100 100 100 100 100 100 100 100 100 100 100 88 100 100 100 100 100 100 95 24 21 16
3 0 2 7 60 94 100 100 100 50 93 96 100 100 100 100 100 100 100 100 100 100 100 100 100 100 100 100 100 94 95 88 100 100 100 100 60 84 100 100 100 100 100 100 100 96 92
4 0 0 5 3 87 100 100 100 100 100 85 100 84 100 100 100 100 100 100 100 100 100 100 100 100 100 100 100 100 100 100 100 100 100 100 100 100 100 100 100 100 100 100 98 8 55
1 0 0 0 0 5 100 100 100 100 100 91 100 81 63 100 98 100 100 100 100 100 100 100 100 100 100 100 100 100 100 100 100 100 100 100 100 100 100 100 100 100 82 67 76 98 51
26 20 4 4 0 4 100 100 100 100 100 100 98 97 98 98 98 73 93 100 100 100 100 100 100 100 100 100 100 100 100 100 94 100 100 100 100 100 28 10 20 8 1 2 86 80 71
2 0 0 1 0 2 90 100 100 100 100 100 100 23 7 93 56 99 100 100 100 100 100 100 100 100 100 100 100 100 100 100 100 100 100 100 85 72 19 5 5 2 4 38 100 100 100
2 0 0 0 0 0 90 100 100 100 100 100 100 92 42 58 100 100 100 100 100 100 100 100 100 100 100 100 100 100 100 100 100 100 100 100 90 66 5 48 26 5 80 100 100 100 29
5 5 0 0 1 0 24 100 100 100 100 100 100 100 91 100 100 100 100 100 100 100 100 100 100 100 100 100 81 100 100 100 100 100 88 72 5 99 5 88 96 25 100 100 25 2 24
0 0 5 3 0 0 5 100 100 100 100 100 100 100 99 95 97 100 100 100 100 100 100 100 100 100 100 90 100 100 100 100 100 65 51 8 5 54 43 100 79 96 13 7 13 41 32
4 5 1 4 0 1 39 100 100 100 100 100 100 100 91 61 100 100 100 100 100 100 100 100 100 100 95 25 100 100 100 100 100 86 94 88 100 100 94 100 11 92 2 85 78 37 100
8 5 5 9 0 4 68 100 100 100 100 100 100 100 20 99 100 100 100 100 100 100 100 100 100 100 100 100 100 100 100 100 99 100 100 100 85 100 98 100 53 4 90 100 100 12 36
97 42 5 68 7 14 88 100 100 100 100 100 100 100 77 91 100 100 100 100 100 100 100 100 100 100 100 100 100 100 100 100 99 79 100 93 100 67 61 100 13 24 43 100 81 42 9
59 27 50 6 54 18 100 100 100 100 100 100 100 96 100 100 100 100 100 100 100 100 100 100 100 69 100 100 100 100 100 99 100 99 100 99 100 32 5 85 73 5 32 98 84 24 43
100 100 100 100 100 100 100 100 100 100 100 100 100 88 100 100 100 100 100 100 100 100 100 100 100 100 100 100 100 100 100 100 100 100 100 99 20 16 7 89 74 100 99 100 66 100 100